| time (UTC) | temp F | wind direction | speed MPH | gust MPH | rain 1hr in | rain 24hr in | rain mn in | humidity % | barometer mb |
| 20260506014303 | 37 | 0 | 0.0 | 0.0 | 0.01 | 0.20 | 0.04 | 99 | 1010.5 |
| 20260506014203 | 38 | 225 | 0.0 | 2.0 | 0.01 | 0.20 | 0.04 | 99 | 1010.5 |
| 20260506014104 | 38 | 225 | 0.0 | 2.0 | 0.01 | 0.20 | 0.04 | 99 | 1010.3 |
| 20260506014004 | 38 | 225 | 0.0 | 2.0 | 0.01 | 0.20 | 0.04 | 99 | 1010.3 |
| 20260506013904 | 37 | 225 | 0.0 | 2.0 | 0.01 | 0.20 | 0.04 | 99 | 1010.1 |
| 20260506013804 | 37 | 225 | 0.0 | 2.0 | 0.02 | 0.20 | 0.04 | 99 | 1010.4 |
| 20260506013703 | 37 | 225 | 0.0 | 2.0 | 0.02 | 0.20 | 0.04 | 99 | 1010.1 |
| 20260506013603 | 38 | 260 | 0.0 | 4.0 | 0.02 | 0.20 | 0.04 | 99 | 1009.9 |
| 20260506013504 | 38 | 275 | 1.0 | 4.0 | 0.02 | 0.20 | 0.04 | 99 | 1009.9 |
| 20260506013403 | 38 | 281 | 1.0 | 4.0 | 0.02 | 0.20 | 0.04 | 99 | 1010.1 |
| 20260506013303 | 38 | 279 | 1.0 | 4.0 | 0.02 | 0.20 | 0.04 | 99 | 1010.2 |
| 20260506013204 | 38 | 273 | 1.0 | 4.0 | 0.02 | 0.20 | 0.04 | 99 | 1010.2 |
| 20260506013104 | 38 | 275 | 2.0 | 4.0 | 0.02 | 0.20 | 0.04 | 99 | 1010.2 |
| 20260506013005 | 38 | 276 | 2.0 | 4.0 | 0.02 | 0.20 | 0.04 | 99 | 1010.3 |
| 20260506012904 | 38 | 277 | 2.0 | 4.0 | 0.02 | 0.20 | 0.04 | 99 | 1010.4 |
| 20260506012804 | 38 | 281 | 2.0 | 4.0 | 0.02 | 0.20 | 0.04 | 99 | 1010.3 |
| 20260506012603 | 38 | 283 | 2.0 | 4.0 | 0.02 | 0.20 | 0.04 | 99 | 1010.5 |
| 20260506012504 | 38 | 281 | 2.0 | 4.0 | 0.02 | 0.20 | 0.04 | 99 | 1010.3 |
| 20260506012404 | 38 | 279 | 1.0 | 4.0 | 0.02 | 0.20 | 0.04 | 99 | 1010.6 |
| 20260506012307 | 38 | 280 | 1.0 | 4.0 | 0.01 | 0.19 | 0.02 | 99 | 1010.7 |
| 20260506012203 | 38 | 287 | 1.0 | 4.0 | 0.01 | 0.19 | 0.02 | 99 | 1010.4 |
| 20260506012103 | 38 | 299 | 1.0 | 2.0 | 0.01 | 0.19 | 0.02 | 99 | 1010.6 |
| 20260506011903 | 38 | 303 | 0.0 | 2.0 | 0.01 | 0.19 | 0.02 | 99 | 1010.3 |
| 20260506011803 | 38 | 292 | 0.0 | 2.0 | 0.01 | 0.19 | 0.02 | 99 | 1010.5 |
| 20260506011703 | 38 | 0 | 0.0 | 0.0 | 0.01 | 0.19 | 0.02 | 99 | 1010.3 |
| 20260506011604 | 38 | 0 | 0.0 | 0.0 | 0.01 | 0.19 | 0.02 | 99 | 1010.3 |
| 20260506011505 | 38 | 0 | 0.0 | 0.0 | 0.01 | 0.19 | 0.02 | 99 | 1010.5 |
| 20260506011404 | 38 | 0 | 0.0 | 0.0 | 0.01 | 0.19 | 0.02 | 99 | 1010.3 |
| 20260506011304 | 38 | 0 | 0.0 | 0.0 | 0.01 | 0.19 | 0.02 | 99 | 1010.2 |
| 20260506011203 | 38 | 0 | 0.0 | 0.0 | 0.01 | 0.19 | 0.02 | 99 | 1010.5 |
| 20260506011004 | 38 | 0 | 0.0 | 0.0 | 0.01 | 0.19 | 0.02 | 99 | 1010.5 |
| 20260506010803 | 38 | 0 | 0.0 | 0.0 | 0.01 | 0.19 | 0.02 | 99 | 1010.6 |
| 20260506010703 | 38 | 0 | 0.0 | 0.0 | 0.01 | 0.19 | 0.02 | 99 | 1010.5 |
| 20260506010604 | 38 | 0 | 0.0 | 0.0 | 0.01 | 0.19 | 0.02 | 99 | 1010.5 |
| 20260506010504 | 38 | 0 | 0.0 | 0.0 | 0.01 | 0.19 | 0.02 | 99 | 1010.6 |
| 20260506010404 | 38 | 0 | 0.0 | 0.0 | 0.01 | 0.19 | 0.02 | 99 | 1010.6 |
| 20260506010304 | 38 | 0 | 0.0 | 0.0 | 0.01 | 0.19 | 0.02 | 99 | 1010.5 |
| 20260506010203 | 38 | 0 | 0.0 | 0.0 | 0.01 | 0.19 | 0.02 | 99 | 1010.6 |
| 20260506010103 | 38 | 0 | 0.0 | 0.0 | 0.01 | 0.19 | 0.02 | 99 | 1010.6 |
| 20260506010004 | 38 | 0 | 0.0 | 0.0 | 0.01 | 0.19 | 0.02 | 99 | 1010.6 |
| 20260506005903 | 38 | 0 | 0.0 | 0.0 | 0.01 | 0.19 | 0.02 | 99 | 1010.7 |
| 20260506005804 | 38 | 0 | 0.0 | 0.0 | 0.01 | 0.19 | 0.02 | 99 | 1010.7 |
| 20260506005604 | 38 | 0 | 0.0 | 0.0 | 0.01 | 0.19 | 0.02 | 99 | 1010.7 |
| 20260506005504 | 38 | 0 | 0.0 | 0.0 | 0.01 | 0.19 | 0.02 | 99 | 1010.6 |
| 20260506005305 | 38 | 0 | 0.0 | 0.0 | 0.01 | 0.19 | 0.02 | 99 | 1010.6 |
| 20260506005204 | 38 | 0 | 0.0 | 0.0 | 0.01 | 0.19 | 0.02 | 99 | 1010.8 |
| 20260506005103 | 38 | 292 | 0.0 | 2.0 | 0.01 | 0.19 | 0.02 | 99 | 1010.6 |
| 20260506005004 | 38 | 292 | 0.0 | 2.0 | 0.01 | 0.19 | 0.02 | 99 | 1010.5 |
| 20260506004805 | 38 | 292 | 0.0 | 2.0 | 0.01 | 0.19 | 0.02 | 99 | 1010.7 |
| 20260506004704 | 38 | 292 | 0.0 | 2.0 | 0.01 | 0.19 | 0.02 | 99 | 1010.8 |
| 20260506004604 | 38 | 292 | 0.0 | 2.0 | 0.01 | 0.19 | 0.02 | 99 | 1010.7 |
| 20260506004505 | 38 | 292 | 0.0 | 2.0 | 0.01 | 0.19 | 0.02 | 99 | 1010.6 |
| 20260506004404 | 38 | 292 | 0.0 | 2.0 | 0.01 | 0.19 | 0.02 | 99 | 1010.7 |
| 20260506004304 | 38 | 292 | 0.0 | 2.0 | 0.01 | 0.19 | 0.02 | 99 | 1010.8 |
| 20260506004203 | 38 | 292 | 0.0 | 2.0 | 0.01 | 0.19 | 0.02 | 99 | 1010.8 |
| 20260506004105 | 38 | 292 | 0.0 | 2.0 | 0.01 | 0.19 | 0.02 | 99 | 1010.8 |
| 20260506004004 | 38 | 292 | 0.0 | 2.0 | 0.01 | 0.19 | 0.02 | 99 | 1010.8 |
| 20260506003804 | 38 | 292 | 0.0 | 2.0 | 0.00 | 0.18 | 0.01 | 99 | 1011.0 |
| 20260506003704 | 38 | 292 | 0.0 | 2.0 | 0.00 | 0.18 | 0.01 | 99 | 1010.9 |
| 20260506003603 | 38 | 292 | 0.0 | 2.0 | 0.00 | 0.18 | 0.01 | 99 | 1010.7 |
| 20260506003504 | 38 | 292 | 0.0 | 2.0 | 0.00 | 0.18 | 0.01 | 99 | 1010.9 |
| 20260506003403 | 38 | 0 | 0.0 | 0.0 | 0.00 | 0.18 | 0.01 | 99 | 1010.9 |
| 20260506003203 | 38 | 0 | 0.0 | 0.0 | 0.00 | 0.18 | 0.01 | 99 | 1010.8 |
| 20260506003104 | 38 | 0 | 0.0 | 0.0 | 0.00 | 0.18 | 0.01 | 99 | 1010.8 |
| 20260506003004 | 38 | 0 | 0.0 | 0.0 | 0.00 | 0.18 | 0.01 | 99 | 1010.8 |
| 20260506002804 | 38 | 0 | 0.0 | 0.0 | 0.00 | 0.18 | 0.01 | 99 | 1010.9 |
| 20260506002604 | 38 | 0 | 0.0 | 0.0 | 0.00 | 0.18 | 0.01 | 99 | 1010.8 |
| 20260506002504 | 38 | 0 | 0.0 | 0.0 | 0.00 | 0.18 | 0.01 | 99 | 1010.7 |
| 20260506002404 | 38 | 0 | 0.0 | 0.0 | 0.00 | 0.18 | 0.01 | 99 | 1010.8 |
| 20260506002305 | 38 | 0 | 0.0 | 0.0 | 0.00 | 0.18 | 0.01 | 99 | 1010.8 |
| 20260506002203 | 38 | 0 | 0.0 | 0.0 | 0.00 | 0.18 | 0.01 | 99 | 1010.9 |
| 20260506002104 | 38 | 0 | 0.0 | 0.0 | 0.00 | 0.18 | 0.01 | 99 | 1010.8 |
| 20260506002004 | 38 | 0 | 0.0 | 0.0 | 0.00 | 0.18 | 0.01 | 99 | 1010.8 |
| 20260506001903 | 38 | 0 | 0.0 | 0.0 | 0.00 | 0.18 | 0.01 | 99 | 1010.8 |
| 20260506001704 | 38 | 0 | 0.0 | 0.0 | 0.00 | 0.18 | 0.01 | 99 | 1010.8 |
| 20260506001604 | 38 | 0 | 0.0 | 0.0 | 0.00 | 0.18 | 0.01 | 99 | 1010.8 |
| 20260506001504 | 38 | 0 | 0.0 | 0.0 | 0.00 | 0.18 | 0.01 | 99 | 1010.7 |
| 20260506001404 | 38 | 0 | 0.0 | 0.0 | 0.00 | 0.18 | 0.01 | 99 | 1011.0 |
| 20260506001303 | 38 | 0 | 0.0 | 0.0 | 0.00 | 0.18 | 0.01 | 99 | 1010.8 |
| 20260506001203 | 38 | 0 | 0.0 | 0.0 | 0.00 | 0.18 | 0.01 | 99 | 1010.7 |
| 20260506001103 | 38 | 0 | 0.0 | 0.0 | 0.00 | 0.18 | 0.01 | 99 | 1010.8 |
| 20260506001004 | 38 | 0 | 0.0 | 0.0 | 0.00 | 0.18 | 0.01 | 99 | 1010.7 |
| 20260506000804 | 38 | 0 | 0.0 | 0.0 | 0.00 | 0.18 | 0.01 | 99 | 1010.8 |
| 20260506000704 | 38 | 0 | 0.0 | 0.0 | 0.00 | 0.18 | 0.01 | 99 | 1010.9 |
| 20260506000603 | 38 | 0 | 0.0 | 0.0 | 0.00 | 0.18 | 0.01 | 99 | 1010.7 |
| 20260506000504 | 38 | 0 | 0.0 | 0.0 | 0.00 | 0.18 | 0.01 | 99 | 1010.7 |
| 20260506000403 | 38 | 0 | 0.0 | 0.0 | 0.00 | 0.18 | 0.01 | 99 | 1010.8 |
| 20260506000303 | 38 | 0 | 0.0 | 0.0 | 0.00 | 0.18 | 0.01 | 99 | 1010.9 |
| 20260506000205 | 38 | 0 | 0.0 | 0.0 | 0.00 | 0.18 | 0.01 | 99 | 1011.0 |
| 20260506000104 | 38 | 0 | 0.0 | 0.0 | 0.00 | 0.18 | 0.01 | 99 | 1010.9 |
| 20260506000005 | 38 | 0 | 0.0 | 0.0 | 0.00 | 0.18 | 0.01 | 99 | 1010.7 |
| 20260505235904 | 38 | 0 | 0.0 | 0.0 | 0.00 | 0.18 | 0.01 | 99 | 1010.8 |
| 20260505235803 | 38 | 0 | 0.0 | 0.0 | 0.00 | 0.18 | 0.01 | 99 | 1011.0 |
| 20260505235603 | 38 | 0 | 0.0 | 0.0 | 0.00 | 0.18 | 0.01 | 99 | 1010.8 |
| 20260505235504 | 37 | 0 | 0.0 | 0.0 | 0.00 | 0.18 | 0.01 | 99 | 1010.7 |
| 20260505235403 | 37 | 0 | 0.0 | 0.0 | 0.00 | 0.18 | 0.01 | 99 | 1010.8 |
| 20260505235305 | 38 | 0 | 0.0 | 0.0 | 0.00 | 0.18 | 0.01 | 99 | 1010.9 |
| 20260505235204 | 38 | 0 | 0.0 | 0.0 | 0.00 | 0.18 | 0.01 | 99 | 1010.9 |
| 20260505235103 | 38 | 0 | 0.0 | 0.0 | 0.00 | 0.18 | 0.01 | 99 | 1010.9 |
| 20260505235004 | 38 | 0 | 0.0 | 0.0 | 0.00 | 0.18 | 0.01 | 99 | 1011.1 |
| 20260505234904 | 38 | 0 | 0.0 | 0.0 | 0.01 | 0.18 | 0.01 | 99 | 1010.8 |
| 20260505234803 | 38 | 0 | 0.0 | 0.0 | 0.01 | 0.18 | 0.01 | 99 | 1010.9 |
| 20260505234703 | 38 | 0 | 0.0 | 0.0 | 0.01 | 0.18 | 0.01 | 99 | 1010.9 |
| 20260505234603 | 38 | 0 | 0.0 | 0.0 | 0.01 | 0.18 | 0.01 | 99 | 1010.7 |
| 20260505234504 | 38 | 0 | 0.0 | 0.0 | 0.01 | 0.18 | 0.01 | 99 | 1010.9 |
| 20260505234404 | 38 | 0 | 0.0 | 0.0 | 0.01 | 0.18 | 0.01 | 99 | 1011.0 |
| 20260505234304 | 38 | 0 | 0.0 | 0.0 | 0.01 | 0.18 | 0.01 | 99 | 1010.9 |
| 20260505234203 | 38 | 0 | 0.0 | 0.0 | 0.01 | 0.18 | 0.01 | 99 | 1011.1 |
| 20260505234103 | 38 | 0 | 0.0 | 0.0 | 0.01 | 0.18 | 0.01 | 99 | 1010.9 |
| 20260505233904 | 38 | 0 | 0.0 | 0.0 | 0.01 | 0.18 | 0.01 | 99 | 1010.8 |
| 20260505233803 | 38 | 0 | 0.0 | 0.0 | 0.01 | 0.18 | 0.01 | 99 | 1010.9 |
| 20260505233504 | 38 | 0 | 0.0 | 0.0 | 0.01 | 0.18 | 0.01 | 99 | 1010.9 |
| 20260505233303 | 38 | 0 | 0.0 | 0.0 | 0.01 | 0.18 | 0.01 | 99 | 1010.7 |
| 20260505233204 | 38 | 0 | 0.0 | 0.0 | 0.01 | 0.18 | 0.01 | 99 | 1010.9 |
| 20260505233104 | 38 | 0 | 0.0 | 0.0 | 0.01 | 0.18 | 0.01 | 99 | 1011.1 |
| 20260505233005 | 38 | 0 | 0.0 | 0.0 | 0.01 | 0.18 | 0.01 | 99 | 1010.9 |
| 20260505232904 | 38 | 0 | 0.0 | 0.0 | 0.01 | 0.18 | 0.01 | 99 | 1011.1 |
| 20260505232804 | 38 | 0 | 0.0 | 0.0 | 0.01 | 0.18 | 0.01 | 99 | 1011.1 |
| 20260505232603 | 38 | 0 | 0.0 | 0.0 | 0.01 | 0.18 | 0.01 | 99 | 1011.1 |
| 20260505232504 | 38 | 0 | 0.0 | 0.0 | 0.01 | 0.18 | 0.01 | 99 | 1011.1 |
| 20260505232305 | 38 | 0 | 0.0 | 0.0 | 0.01 | 0.18 | 0.01 | 99 | 1011.2 |
| 20260505232204 | 38 | 0 | 0.0 | 0.0 | 0.01 | 0.18 | 0.01 | 99 | 1011.0 |
| 20260505232005 | 39 | 0 | 0.0 | 0.0 | 0.01 | 0.18 | 0.01 | 99 | 1011.2 |
| 20260505231804 | 39 | 0 | 0.0 | 0.0 | 0.01 | 0.18 | 0.01 | 99 | 1011.4 |
| 20260505231703 | 38 | 0 | 0.0 | 0.0 | 0.01 | 0.18 | 0.01 | 99 | 1011.3 |
| 20260505231603 | 38 | 0 | 0.0 | 0.0 | 0.01 | 0.18 | 0.01 | 99 | 1011.4 |
| 20260505231504 | 38 | 0 | 0.0 | 0.0 | 0.01 | 0.18 | 0.01 | 99 | 1011.3 |
| 20260505231403 | 38 | 0 | 0.0 | 0.0 | 0.01 | 0.18 | 0.01 | 99 | 1011.2 |
| 20260505231303 | 38 | 0 | 0.0 | 0.0 | 0.01 | 0.18 | 0.01 | 99 | 1011.4 |
| 20260505231204 | 38 | 0 | 0.0 | 0.0 | 0.01 | 0.18 | 0.01 | 99 | 1011.3 |
| 20260505231103 | 38 | 0 | 0.0 | 0.0 | 0.01 | 0.18 | 0.01 | 99 | 1011.3 |
| 20260505231004 | 38 | 0 | 0.0 | 0.0 | 0.01 | 0.18 | 0.01 | 99 | 1011.2 |
| 20260505230903 | 38 | 0 | 0.0 | 0.0 | 0.01 | 0.18 | 0.01 | 99 | 1011.0 |
| 20260505230703 | 39 | 0 | 0.0 | 0.0 | 0.01 | 0.18 | 0.01 | 99 | 1011.2 |
| 20260505230603 | 38 | 0 | 0.0 | 0.0 | 0.01 | 0.18 | 0.01 | 99 | 1011.2 |
| 20260505230504 | 38 | 0 | 0.0 | 0.0 | 0.01 | 0.18 | 0.01 | 99 | 1011.3 |
| 20260505230403 | 38 | 0 | 0.0 | 0.0 | 0.01 | 0.18 | 0.01 | 99 | 1011.1 |
| 20260505230304 | 38 | 0 | 0.0 | 0.0 | 0.01 | 0.18 | 0.01 | 99 | 1011.1 |
| 20260505230204 | 38 | 0 | 0.0 | 0.0 | 0.01 | 0.18 | 0.01 | 99 | 1011.0 |
| 20260505230004 | 38 | 0 | 0.0 | 0.0 | 0.01 | 0.18 | 0.01 | 99 | 1011.1 |
| 20260505225903 | 38 | 0 | 0.0 | 0.0 | 0.01 | 0.18 | 0.01 | 99 | 1011.0 |
| 20260505225803 | 38 | 0 | 0.0 | 0.0 | 0.01 | 0.18 | 0.01 | 99 | 1011.1 |
| 20260505225704 | 38 | 0 | 0.0 | 0.0 | 0.01 | 0.18 | 0.01 | 99 | 1011.2 |
| 20260505225404 | 39 | 0 | 0.0 | 0.0 | 0.01 | 0.18 | 0.01 | 99 | 1011.3 |
| 20260505225305 | 39 | 0 | 0.0 | 0.0 | 0.01 | 0.18 | 0.01 | 99 | 1011.3 |
| 20260505225203 | 39 | 0 | 0.0 | 0.0 | 0.01 | 0.18 | 0.01 | 99 | 1011.1 |
| 20260505225103 | 39 | 0 | 0.0 | 0.0 | 0.01 | 0.18 | 0.01 | 99 | 1011.0 |
| 20260505225004 | 39 | 0 | 0.0 | 0.0 | 0.00 | 0.17 | 0.01 | 99 | 1011.1 |
| 20260505224904 | 39 | 0 | 0.0 | 0.0 | 0.00 | 0.17 | 0.00 | 99 | 1011.2 |
| 20260505224803 | 39 | 0 | 0.0 | 0.0 | 0.00 | 0.17 | 0.00 | 99 | 1011.2 |
| 20260505224703 | 39 | 0 | 0.0 | 0.0 | 0.00 | 0.17 | 0.00 | 99 | 1011.2 |
| 20260505224504 | 39 | 0 | 0.0 | 0.0 | 0.00 | 0.17 | 0.00 | 99 | 1011.1 |
| 20260505224403 | 39 | 0 | 0.0 | 0.0 | 0.00 | 0.17 | 0.00 | 99 | 1011.4 |
| 20260505224203 | 39 | 0 | 0.0 | 0.0 | 0.00 | 0.17 | 0.00 | 99 | 1011.4 |
| 20260505224104 | 39 | 0 | 0.0 | 0.0 | 0.00 | 0.17 | 0.00 | 99 | 1011.3 |
| 20260505224004 | 39 | 0 | 0.0 | 0.0 | 0.00 | 0.17 | 0.00 | 99 | 1011.3 |
| 20260505223904 | 39 | 0 | 0.0 | 0.0 | 0.00 | 0.17 | 0.00 | 99 | 1011.6 |
| 20260505223804 | 39 | 0 | 0.0 | 0.0 | 0.00 | 0.17 | 0.00 | 99 | 1011.3 |
| 20260505223703 | 39 | 0 | 0.0 | 0.0 | 0.00 | 0.17 | 0.00 | 99 | 1011.5 |
| 20260505223603 | 39 | 0 | 0.0 | 0.0 | 0.00 | 0.17 | 0.00 | 99 | 1011.5 |
| 20260505223504 | 39 | 0 | 0.0 | 0.0 | 0.00 | 0.17 | 0.00 | 99 | 1011.2 |
| 20260505223403 | 39 | 0 | 0.0 | 0.0 | 0.00 | 0.17 | 0.00 | 99 | 1011.4 |
| 20260505223303 | 39 | 0 | 0.0 | 0.0 | 0.00 | 0.17 | 0.00 | 99 | 1011.4 |
| 20260505223204 | 39 | 0 | 0.0 | 0.0 | 0.00 | 0.17 | 0.00 | 99 | 1011.5 |
| 20260505223104 | 39 | 0 | 0.0 | 0.0 | 0.00 | 0.17 | 0.00 | 99 | 1011.6 |
| 20260505223005 | 39 | 0 | 0.0 | 0.0 | 0.00 | 0.17 | 0.00 | 99 | 1011.6 |
| 20260505222904 | 39 | 0 | 0.0 | 0.0 | 0.00 | 0.17 | 0.00 | 99 | 1011.6 |
| 20260505222803 | 39 | 0 | 0.0 | 0.0 | 0.00 | 0.17 | 0.00 | 99 | 1011.6 |
| 20260505222703 | 39 | 0 | 0.0 | 0.0 | 0.00 | 0.17 | 0.00 | 99 | 1011.6 |
| 20260505222603 | 39 | 0 | 0.0 | 0.0 | 0.00 | 0.17 | 0.00 | 99 | 1011.6 |
| 20260505222504 | 39 | 0 | 0.0 | 0.0 | 0.00 | 0.17 | 0.00 | 99 | 1011.5 |
| 20260505222403 | 39 | 0 | 0.0 | 0.0 | 0.00 | 0.17 | 0.00 | 99 | 1011.5 |
| 20260505222305 | 39 | 0 | 0.0 | 0.0 | 0.00 | 0.17 | 0.00 | 99 | 1011.4 |
| 20260505222104 | 39 | 135 | 0.0 | 2.0 | 0.00 | 0.17 | 0.00 | 99 | 1011.7 |
| 20260505222004 | 39 | 135 | 0.0 | 2.0 | 0.00 | 0.17 | 0.00 | 99 | 1011.5 |
| 20260505221903 | 39 | 135 | 0.0 | 2.0 | 0.00 | 0.17 | 0.00 | 99 | 1011.6 |
| 20260505221803 | 39 | 140 | 0.0 | 2.0 | 0.00 | 0.17 | 0.00 | 99 | 1011.5 |
| 20260505221703 | 39 | 143 | 1.0 | 2.0 | 0.00 | 0.17 | 0.00 | 99 | 1011.4 |
| 20260505221603 | 39 | 144 | 1.0 | 2.0 | 0.00 | 0.17 | 0.00 | 99 | 1011.5 |
| 20260505221504 | 39 | 144 | 1.0 | 2.0 | 0.00 | 0.17 | 0.00 | 99 | 1011.6 |
| 20260505221404 | 39 | 144 | 1.0 | 2.0 | 0.00 | 0.17 | 0.00 | 99 | 1011.5 |
| 20260505221304 | 38 | 144 | 1.0 | 2.0 | 0.00 | 0.17 | 0.00 | 99 | 1011.5 |
| 20260505221103 | 38 | 150 | 0.0 | 2.0 | 0.00 | 0.17 | 0.00 | 99 | 1011.5 |
| 20260505221004 | 39 | 150 | 0.0 | 2.0 | 0.00 | 0.17 | 0.00 | 99 | 1011.6 |
| 20260505220904 | 39 | 158 | 0.0 | 2.0 | 0.00 | 0.17 | 0.00 | 99 | 1011.4 |
| 20260505220804 | 39 | 158 | 0.0 | 2.0 | 0.00 | 0.17 | 0.00 | 99 | 1011.5 |
| 20260505220703 | 39 | 158 | 0.0 | 2.0 | 0.00 | 0.17 | 0.00 | 99 | 1011.7 |
| 20260505220603 | 39 | 0 | 0.0 | 0.0 | 0.00 | 0.17 | 0.00 | 99 | 1011.5 |
| 20260505220504 | 39 | 0 | 0.0 | 0.0 | 0.00 | 0.17 | 0.00 | 99 | 1011.7 |
| 20260505220403 | 39 | 0 | 0.0 | 0.0 | 0.00 | 0.17 | 0.00 | 99 | 1011.6 |
| 20260505220303 | 39 | 0 | 0.0 | 0.0 | 0.00 | 0.17 | 0.00 | 99 | 1011.7 |
| 20260505220204 | 39 | 158 | 0.0 | 2.0 | 0.00 | 0.17 | 0.00 | 99 | 1011.7 |
| 20260505220103 | 39 | 158 | 0.0 | 2.0 | 0.00 | 0.17 | 0.00 | 99 | 1011.5 |
| 20260505220006 | 39 | 158 | 0.0 | 2.0 | 0.00 | 0.17 | 0.00 | 99 | 1011.7 |
| 20260505215903 | 39 | 158 | 0.0 | 2.0 | 0.00 | 0.17 | 0.17 | 99 | 1011.5 |
| 20260505215703 | 39 | 158 | 0.0 | 2.0 | 0.00 | 0.17 | 0.17 | 99 | 1011.5 |
| 20260505215604 | 39 | 158 | 0.0 | 2.0 | 0.00 | 0.17 | 0.17 | 99 | 1011.7 |
| 20260505215505 | 39 | 158 | 0.0 | 2.0 | 0.00 | 0.17 | 0.17 | 99 | 1011.7 |
| 20260505215305 | 39 | 158 | 0.0 | 2.0 | 0.00 | 0.17 | 0.17 | 99 | 1011.7 |
| 20260505215203 | 39 | 158 | 0.0 | 2.0 | 0.00 | 0.17 | 0.17 | 99 | 1011.7 |
| 20260505215103 | 39 | 0 | 0.0 | 0.0 | 0.00 | 0.17 | 0.17 | 99 | 1011.8 |
| 20260505215004 | 39 | 0 | 0.0 | 0.0 | 0.00 | 0.17 | 0.17 | 99 | 1011.7 |
| 20260505214903 | 39 | 0 | 0.0 | 0.0 | 0.00 | 0.17 | 0.17 | 99 | 1011.7 |
| 20260505214804 | 39 | 158 | 0.0 | 2.0 | 0.00 | 0.17 | 0.17 | 99 | 1011.7 |
| 20260505214603 | 39 | 158 | 0.0 | 2.0 | 0.00 | 0.17 | 0.17 | 99 | 1011.9 |
| 20260505214504 | 39 | 158 | 0.0 | 2.0 | 0.00 | 0.17 | 0.17 | 99 | 1011.7 |
| 20260505214403 | 39 | 158 | 0.0 | 2.0 | 0.00 | 0.17 | 0.17 | 99 | 1011.7 |
| 20260505214303 | 39 | 158 | 0.0 | 2.0 | 0.00 | 0.17 | 0.17 | 99 | 1011.8 |
| 20260505214203 | 39 | 158 | 0.0 | 2.0 | 0.00 | 0.17 | 0.17 | 99 | 1011.8 |
| 20260505214103 | 39 | 158 | 0.0 | 2.0 | 0.00 | 0.17 | 0.17 | 99 | 1011.9 |
| 20260505214004 | 39 | 158 | 0.0 | 2.0 | 0.00 | 0.17 | 0.17 | 99 | 1011.7 |
| 20260505213904 | 39 | 158 | 0.0 | 2.0 | 0.00 | 0.17 | 0.17 | 99 | 1012.0 |
| 20260505213804 | 39 | 158 | 0.0 | 2.0 | 0.00 | 0.17 | 0.17 | 99 | 1011.7 |
| 20260505213603 | 39 | 167 | 0.0 | 2.0 | 0.00 | 0.17 | 0.17 | 99 | 1011.9 |
| 20260505213504 | 39 | 167 | 0.0 | 2.0 | 0.00 | 0.17 | 0.17 | 99 | 1011.8 |
| 20260505213403 | 39 | 167 | 0.0 | 2.0 | 0.01 | 0.17 | 0.17 | 99 | 1012.0 |
| 20260505213303 | 39 | 167 | 0.0 | 2.0 | 0.01 | 0.17 | 0.17 | 99 | 1012.0 |
| 20260505213203 | 38 | 164 | 0.0 | 2.0 | 0.01 | 0.17 | 0.17 | 99 | 1012.0 |
| 20260505213006 | 39 | 163 | 0.0 | 2.0 | 0.01 | 0.17 | 0.17 | 99 | 1012.1 |
| 20260505212905 | 39 | 163 | 0.0 | 2.0 | 0.01 | 0.17 | 0.17 | 99 | 1011.9 |
| 20260505212806 | 39 | 162 | 1.0 | 2.0 | 0.01 | 0.17 | 0.17 | 99 | 1011.9 |
| 20260505212705 | 39 | 159 | 0.0 | 2.0 | 0.01 | 0.17 | 0.17 | 99 | 1012.0 |
| 20260505212605 | 39 | 158 | 1.0 | 2.0 | 0.01 | 0.17 | 0.17 | 99 | 1011.9 |
| 20260505212506 | 39 | 158 | 1.0 | 2.0 | 0.01 | 0.17 | 0.17 | 99 | 1012.0 |
| 20260505212405 | 39 | 158 | 1.0 | 2.0 | 0.01 | 0.17 | 0.17 | 99 | 1011.8 |
| 20260505212306 | 39 | 158 | 1.0 | 2.0 | 0.01 | 0.17 | 0.17 | 99 | 1011.9 |
| 20260505212205 | 39 | 158 | 1.0 | 2.0 | 0.01 | 0.17 | 0.17 | 99 | 1012.0 |
| 20260505212105 | 39 | 158 | 0.0 | 2.0 | 0.01 | 0.17 | 0.17 | 99 | 1012.0 |
| 20260505212006 | 39 | 158 | 1.0 | 2.0 | 0.01 | 0.17 | 0.17 | 99 | 1011.9 |
| 20260505211906 | 39 | 158 | 1.0 | 2.0 | 0.01 | 0.17 | 0.17 | 99 | 1012.0 |
| 20260505211806 | 39 | 158 | 0.0 | 2.0 | 0.01 | 0.17 | 0.17 | 99 | 1012.0 |
| 20260505211705 | 39 | 158 | 0.0 | 2.0 | 0.01 | 0.17 | 0.17 | 99 | 1012.1 |
| 20260505211305 | 39 | 0 | 0.0 | 0.0 | 0.01 | 0.17 | 0.17 | 99 | 1012.1 |
| 20260505211205 | 39 | 0 | 0.0 | 0.0 | 0.01 | 0.17 | 0.17 | 99 | 1012.1 |
| 20260505211105 | 39 | 0 | 0.0 | 0.0 | 0.01 | 0.17 | 0.17 | 99 | 1012.1 |
| 20260505211006 | 39 | 0 | 0.0 | 0.0 | 0.01 | 0.17 | 0.17 | 99 | 1012.1 |
| 20260505210905 | 39 | 158 | 0.0 | 2.0 | 0.01 | 0.17 | 0.17 | 99 | 1012.1 |
| 20260505210806 | 39 | 158 | 0.0 | 2.0 | 0.01 | 0.17 | 0.17 | 99 | 1012.0 |
| 20260505210705 | 39 | 160 | 0.0 | 2.0 | 0.01 | 0.17 | 0.17 | 99 | 1011.9 |
| 20260505210605 | 39 | 163 | 1.0 | 2.0 | 0.01 | 0.17 | 0.17 | 99 | 1012.3 |
| 20260505210506 | 39 | 162 | 1.0 | 2.0 | 0.01 | 0.17 | 0.17 | 99 | 1012.1 |
| 20260505210405 | 39 | 162 | 1.0 | 2.0 | 0.01 | 0.17 | 0.17 | 99 | 1012.2 |
| 20260505210305 | 39 | 161 | 1.0 | 2.0 | 0.01 | 0.17 | 0.17 | 99 | 1012.1 |
| 20260505210206 | 39 | 161 | 1.0 | 2.0 | 0.01 | 0.17 | 0.17 | 99 | 1012.0 |
| 20260505210106 | 39 | 161 | 1.0 | 2.0 | 0.01 | 0.17 | 0.17 | 99 | 1012.2 |
| 20260505210006 | 39 | 161 | 1.0 | 2.0 | 0.01 | 0.17 | 0.17 | 99 | 1012.2 |
| 20260505205906 | 39 | 162 | 1.0 | 2.0 | 0.01 | 0.17 | 0.17 | 99 | 1012.0 |
| 20260505205805 | 39 | 163 | 1.0 | 2.0 | 0.01 | 0.17 | 0.17 | 99 | 1012.3 |
| 20260505205705 | 39 | 164 | 0.0 | 2.0 | 0.01 | 0.17 | 0.17 | 99 | 1012.1 |
| 20260505205506 | 39 | 158 | 0.0 | 2.0 | 0.01 | 0.17 | 0.17 | 99 | 1012.1 |
| 20260505205405 | 39 | 158 | 0.0 | 2.0 | 0.01 | 0.17 | 0.17 | 99 | 1012.1 |
| 20260505205305 | 39 | 158 | 0.0 | 2.0 | 0.01 | 0.17 | 0.17 | 99 | 1012.1 |
| 20260505205206 | 39 | 158 | 0.0 | 2.0 | 0.01 | 0.17 | 0.17 | 99 | 1012.1 |
| 20260505205106 | 39 | 158 | 0.0 | 2.0 | 0.01 | 0.17 | 0.17 | 99 | 1012.2 |
| 20260505204905 | 39 | 158 | 1.0 | 2.0 | 0.01 | 0.17 | 0.17 | 99 | 1012.0 |
| 20260505204805 | 39 | 158 | 1.0 | 2.0 | 0.01 | 0.17 | 0.17 | 99 | 1012.0 |
| 20260505204705 | 39 | 158 | 1.0 | 2.0 | 0.01 | 0.17 | 0.17 | 99 | 1012.1 |
| 20260505204506 | 39 | 158 | 0.0 | 2.0 | 0.01 | 0.17 | 0.17 | 99 | 1012.1 |
| 20260505204405 | 39 | 158 | 0.0 | 2.0 | 0.01 | 0.17 | 0.17 | 99 | 1012.2 |
| 20260505204306 | 39 | 158 | 0.0 | 2.0 | 0.01 | 0.17 | 0.17 | 99 | 1012.2 |
| 20260505204205 | 39 | 158 | 0.0 | 2.0 | 0.01 | 0.17 | 0.17 | 99 | 1012.1 |
| 20260505204105 | 39 | 158 | 0.0 | 2.0 | 0.02 | 0.17 | 0.17 | 99 | 1012.0 |
| 20260505204007 | 39 | 0 | 0.0 | 0.0 | 0.02 | 0.17 | 0.17 | 99 | 1012.1 |
| 20260505203905 | 39 | 0 | 0.0 | 0.0 | 0.02 | 0.17 | 0.17 | 99 | 1012.2 |
| 20260505203806 | 39 | 0 | 0.0 | 0.0 | 0.02 | 0.17 | 0.17 | 99 | 1012.0 |
| 20260505203706 | 39 | 0 | 0.0 | 0.0 | 0.02 | 0.17 | 0.17 | 99 | 1012.2 |
| 20260505203606 | 39 | 0 | 0.0 | 0.0 | 0.04 | 0.17 | 0.17 | 99 | 1011.8 |
| 20260505203506 | 39 | 0 | 0.0 | 0.0 | 0.04 | 0.17 | 0.17 | 99 | 1012.0 |
| 20260505203406 | 39 | 0 | 0.0 | 0.0 | 0.02 | 0.15 | 0.15 | 99 | 1012.3 |
| 20260505203305 | 39 | 0 | 0.0 | 0.0 | 0.02 | 0.15 | 0.15 | 99 | 1012.2 |
| 20260505203105 | 39 | 0 | 0.0 | 0.0 | 0.02 | 0.15 | 0.15 | 99 | 1012.2 |
| 20260505203006 | 39 | 0 | 0.0 | 0.0 | 0.02 | 0.15 | 0.15 | 99 | 1012.2 |
| 20260505202905 | 39 | 0 | 0.0 | 0.0 | 0.02 | 0.15 | 0.15 | 99 | 1012.3 |
| 20260505202805 | 39 | 0 | 0.0 | 0.0 | 0.02 | 0.15 | 0.15 | 99 | 1012.1 |
| 20260505202506 | 39 | 0 | 0.0 | 0.0 | 0.02 | 0.15 | 0.15 | 99 | 1012.3 |
| 20260505202405 | 39 | 0 | 0.0 | 0.0 | 0.02 | 0.15 | 0.15 | 99 | 1012.0 |
| 20260505202206 | 39 | 0 | 0.0 | 0.0 | 0.02 | 0.15 | 0.15 | 99 | 1011.9 |
| 20260505202105 | 39 | 0 | 0.0 | 0.0 | 0.02 | 0.15 | 0.15 | 99 | 1012.1 |
| 20260505201906 | 39 | 0 | 0.0 | 0.0 | 0.02 | 0.15 | 0.15 | 99 | 1012.2 |
| 20260505201805 | 39 | 0 | 0.0 | 0.0 | 0.02 | 0.15 | 0.15 | 99 | 1012.1 |
| 20260505201705 | 39 | 0 | 0.0 | 0.0 | 0.02 | 0.15 | 0.15 | 99 | 1012.1 |
| 20260505201605 | 39 | 0 | 0.0 | 0.0 | 0.02 | 0.15 | 0.15 | 99 | 1012.1 |
| 20260505201405 | 39 | 0 | 0.0 | 0.0 | 0.02 | 0.15 | 0.15 | 99 | 1012.1 |
| 20260505201306 | 39 | 0 | 0.0 | 0.0 | 0.02 | 0.15 | 0.15 | 99 | 1012.1 |
| 20260505201205 | 39 | 0 | 0.0 | 0.0 | 0.02 | 0.15 | 0.15 | 99 | 1012.2 |
| 20260505201105 | 39 | 0 | 0.0 | 0.0 | 0.02 | 0.15 | 0.15 | 99 | 1012.2 |
| 20260505200905 | 39 | 0 | 0.0 | 0.0 | 0.02 | 0.15 | 0.15 | 99 | 1012.1 |
| 20260505200805 | 39 | 0 | 0.0 | 0.0 | 0.02 | 0.15 | 0.15 | 99 | 1012.2 |
| 20260505200605 | 39 | 0 | 0.0 | 0.0 | 0.02 | 0.15 | 0.15 | 99 | 1012.2 |
| 20260505200405 | 39 | 0 | 0.0 | 0.0 | 0.02 | 0.15 | 0.15 | 99 | 1012.3 |
| 20260505200306 | 39 | 0 | 0.0 | 0.0 | 0.02 | 0.15 | 0.15 | 99 | 1012.3 |
| 20260505200205 | 39 | 0 | 0.0 | 0.0 | 0.02 | 0.15 | 0.15 | 99 | 1012.2 |
| 20260505200105 | 39 | 0 | 0.0 | 0.0 | 0.02 | 0.15 | 0.15 | 99 | 1012.2 |
| 20260505200006 | 39 | 0 | 0.0 | 0.0 | 0.02 | 0.15 | 0.15 | 99 | 1012.2 |
| 20260505195905 | 39 | 0 | 0.0 | 0.0 | 0.02 | 0.15 | 0.15 | 99 | 1012.2 |
| 20260505195805 | 39 | 0 | 0.0 | 0.0 | 0.02 | 0.15 | 0.15 | 99 | 1012.0 |
| 20260505195705 | 39 | 0 | 0.0 | 0.0 | 0.02 | 0.15 | 0.15 | 99 | 1012.1 |
| 20260505195606 | 39 | 0 | 0.0 | 0.0 | 0.02 | 0.15 | 0.15 | 99 | 1012.0 |
| 20260505195505 | 39 | 0 | 0.0 | 0.0 | 0.02 | 0.15 | 0.15 | 99 | 1012.1 |
| 20260505195406 | 39 | 0 | 0.0 | 0.0 | 0.02 | 0.15 | 0.15 | 99 | 1011.9 |
| 20260505195305 | 39 | 0 | 0.0 | 0.0 | 0.02 | 0.15 | 0.15 | 99 | 1012.1 |
| 20260505195205 | 39 | 0 | 0.0 | 0.0 | 0.02 | 0.15 | 0.15 | 99 | 1012.1 |
| 20260505195006 | 39 | 0 | 0.0 | 0.0 | 0.02 | 0.15 | 0.15 | 99 | 1012.0 |
| 20260505194905 | 39 | 0 | 0.0 | 0.0 | 0.02 | 0.15 | 0.15 | 99 | 1012.1 |
| 20260505194506 | 39 | 0 | 0.0 | 0.0 | 0.02 | 0.15 | 0.15 | 99 | 1011.9 |
| 20260505194406 | 39 | 0 | 0.0 | 0.0 | 0.02 | 0.15 | 0.15 | 99 | 1012.1 |
| 20260505194306 | 39 | 0 | 0.0 | 0.0 | 0.02 | 0.15 | 0.15 | 99 | 1012.0 |
| 20260505194205 | 39 | 0 | 0.0 | 0.0 | 0.01 | 0.14 | 0.14 | 99 | 1012.0 |
| 20260505193905 | 39 | 0 | 0.0 | 0.0 | 0.01 | 0.14 | 0.14 | 99 | 1012.1 |
| 20260505193805 | 40 | 0 | 0.0 | 0.0 | 0.01 | 0.14 | 0.14 | 99 | 1012.0 |
| 20260505193705 | 40 | 0 | 0.0 | 0.0 | 0.00 | 0.13 | 0.13 | 99 | 1012.0 |
| 20260505193606 | 39 | 0 | 0.0 | 0.0 | 0.00 | 0.13 | 0.13 | 99 | 1012.0 |
| 20260505193506 | 39 | 0 | 0.0 | 0.0 | 0.00 | 0.13 | 0.13 | 99 | 1012.2 |
| 20260505193406 | 39 | 0 | 0.0 | 0.0 | 0.00 | 0.13 | 0.13 | 99 | 1012.0 |
| 20260505193305 | 39 | 0 | 0.0 | 0.0 | 0.00 | 0.13 | 0.13 | 99 | 1012.0 |
| 20260505193205 | 39 | 0 | 0.0 | 0.0 | 0.00 | 0.13 | 0.13 | 99 | 1012.3 |
| 20260505193105 | 39 | 0 | 0.0 | 0.0 | 0.00 | 0.13 | 0.13 | 99 | 1011.9 |
| 20260505193007 | 39 | 0 | 0.0 | 0.0 | 0.00 | 0.13 | 0.13 | 99 | 1012.1 |
| 20260505192905 | 39 | 0 | 0.0 | 0.0 | 0.00 | 0.13 | 0.13 | 99 | 1012.1 |
| 20260505192805 | 39 | 0 | 0.0 | 0.0 | 0.00 | 0.13 | 0.13 | 99 | 1011.8 |
| 20260505192606 | 39 | 0 | 0.0 | 0.0 | 0.00 | 0.13 | 0.13 | 99 | 1011.9 |
| 20260505192505 | 39 | 0 | 0.0 | 0.0 | 0.00 | 0.13 | 0.13 | 99 | 1011.9 |
| 20260505192406 | 39 | 0 | 0.0 | 0.0 | 0.00 | 0.13 | 0.13 | 99 | 1012.1 |
| 20260505192306 | 39 | 0 | 0.0 | 0.0 | 0.00 | 0.13 | 0.13 | 99 | 1012.0 |
| 20260505192205 | 39 | 0 | 0.0 | 0.0 | 0.00 | 0.13 | 0.13 | 99 | 1012.0 |
| 20260505192006 | 39 | 0 | 0.0 | 0.0 | 0.00 | 0.13 | 0.13 | 99 | 1012.0 |
| 20260505191905 | 39 | 0 | 0.0 | 0.0 | 0.00 | 0.13 | 0.13 | 99 | 1011.8 |
| 20260505191806 | 39 | 0 | 0.0 | 0.0 | 0.00 | 0.13 | 0.13 | 99 | 1012.0 |
| 20260505191605 | 39 | 0 | 0.0 | 0.0 | 0.00 | 0.13 | 0.13 | 99 | 1012.1 |
| 20260505191505 | 39 | 0 | 0.0 | 0.0 | 0.00 | 0.13 | 0.13 | 99 | 1012.0 |
| 20260505191406 | 39 | 0 | 0.0 | 0.0 | 0.00 | 0.13 | 0.13 | 99 | 1011.8 |
| 20260505191205 | 39 | 0 | 0.0 | 0.0 | 0.00 | 0.13 | 0.13 | 99 | 1011.9 |
| 20260505191105 | 39 | 0 | 0.0 | 0.0 | 0.00 | 0.13 | 0.13 | 99 | 1012.0 |
| 20260505191006 | 39 | 0 | 0.0 | 0.0 | 0.00 | 0.13 | 0.13 | 99 | 1011.9 |
| 20260505190805 | 39 | 0 | 0.0 | 0.0 | 0.00 | 0.13 | 0.13 | 99 | 1011.8 |
| 20260505190705 | 39 | 0 | 0.0 | 0.0 | 0.00 | 0.13 | 0.13 | 99 | 1012.0 |
| 20260505190406 | 39 | 0 | 0.0 | 0.0 | 0.00 | 0.13 | 0.13 | 99 | 1011.8 |
| 20260505190306 | 39 | 0 | 0.0 | 0.0 | 0.00 | 0.13 | 0.13 | 99 | 1011.9 |
| 20260505190105 | 39 | 0 | 0.0 | 0.0 | 0.00 | 0.13 | 0.13 | 99 | 1011.8 |
| 20260505190006 | 39 | 0 | 0.0 | 0.0 | 0.00 | 0.13 | 0.13 | 99 | 1011.9 |
| 20260505185905 | 39 | 0 | 0.0 | 0.0 | 0.00 | 0.13 | 0.13 | 99 | 1011.7 |
| 20260505185805 | 39 | 0 | 0.0 | 0.0 | 0.00 | 0.13 | 0.13 | 99 | 1011.7 |
| 20260505185705 | 39 | 0 | 0.0 | 0.0 | 0.00 | 0.13 | 0.13 | 99 | 1011.7 |
| 20260505185606 | 39 | 0 | 0.0 | 0.0 | 0.00 | 0.13 | 0.13 | 99 | 1011.8 |
| 20260505185505 | 39 | 0 | 0.0 | 0.0 | 0.00 | 0.13 | 0.13 | 99 | 1011.8 |
| 20260505185406 | 39 | 0 | 0.0 | 0.0 | 0.00 | 0.13 | 0.13 | 99 | 1011.6 |
| 20260505185305 | 39 | 0 | 0.0 | 0.0 | 0.00 | 0.13 | 0.13 | 99 | 1011.9 |
| 20260505185205 | 39 | 0 | 0.0 | 0.0 | 0.00 | 0.13 | 0.13 | 99 | 1011.8 |
| 20260505185105 | 39 | 0 | 0.0 | 0.0 | 0.00 | 0.13 | 0.13 | 99 | 1011.8 |
| 20260505185006 | 39 | 0 | 0.0 | 0.0 | 0.00 | 0.13 | 0.13 | 99 | 1011.9 |
| 20260505184905 | 39 | 0 | 0.0 | 0.0 | 0.00 | 0.13 | 0.13 | 99 | 1011.8 |
| 20260505184805 | 39 | 0 | 0.0 | 0.0 | 0.00 | 0.13 | 0.13 | 99 | 1011.8 |
| 20260505184706 | 39 | 0 | 0.0 | 0.0 | 0.00 | 0.13 | 0.13 | 99 | 1011.6 |
| 20260505184605 | 39 | 0 | 0.0 | 0.0 | 0.00 | 0.13 | 0.13 | 99 | 1011.7 |
| 20260505184506 | 39 | 0 | 0.0 | 0.0 | 0.00 | 0.13 | 0.13 | 99 | 1011.6 |
| 20260505184405 | 39 | 0 | 0.0 | 0.0 | 0.00 | 0.13 | 0.13 | 99 | 1011.7 |
| 20260505184305 | 39 | 0 | 0.0 | 0.0 | 0.00 | 0.13 | 0.13 | 99 | 1011.6 |
| 20260505184205 | 40 | 0 | 0.0 | 0.0 | 0.00 | 0.13 | 0.13 | 99 | 1011.7 |
| 20260505184105 | 40 | 0 | 0.0 | 0.0 | 0.00 | 0.13 | 0.13 | 99 | 1011.6 |
| 20260505184006 | 40 | 0 | 0.0 | 0.0 | 0.00 | 0.13 | 0.13 | 99 | 1011.7 |
| 20260505183905 | 40 | 0 | 0.0 | 0.0 | 0.00 | 0.13 | 0.13 | 99 | 1011.6 |
| 20260505183806 | 39 | 0 | 0.0 | 0.0 | 0.00 | 0.13 | 0.13 | 99 | 1011.5 |
| 20260505183705 | 40 | 0 | 0.0 | 0.0 | 0.00 | 0.13 | 0.13 | 99 | 1011.9 |
| 20260505183605 | 39 | 0 | 0.0 | 0.0 | 0.00 | 0.13 | 0.13 | 99 | 1011.5 |
| 20260505183506 | 39 | 0 | 0.0 | 0.0 | 0.00 | 0.13 | 0.13 | 99 | 1011.7 |
| 20260505183405 | 39 | 0 | 0.0 | 0.0 | 0.00 | 0.13 | 0.13 | 99 | 1011.8 |
| 20260505183305 | 39 | 0 | 0.0 | 0.0 | 0.00 | 0.13 | 0.13 | 99 | 1011.6 |
| 20260505183206 | 39 | 0 | 0.0 | 0.0 | 0.00 | 0.13 | 0.13 | 99 | 1011.7 |
| 20260505183105 | 39 | 0 | 0.0 | 0.0 | 0.00 | 0.13 | 0.13 | 99 | 1011.7 |
| 20260505183005 | 39 | 0 | 0.0 | 0.0 | 0.00 | 0.13 | 0.13 | 99 | 1011.4 |
| 20260505182906 | 39 | 0 | 0.0 | 0.0 | 0.00 | 0.13 | 0.13 | 99 | 1011.7 |
| 20260505182805 | 39 | 0 | 0.0 | 0.0 | 0.00 | 0.13 | 0.13 | 99 | 1011.5 |
| 20260505182605 | 39 | 0 | 0.0 | 0.0 | 0.00 | 0.13 | 0.13 | 99 | 1011.4 |
| 20260505182506 | 39 | 0 | 0.0 | 0.0 | 0.00 | 0.13 | 0.13 | 99 | 1011.6 |
| 20260505182405 | 39 | 0 | 0.0 | 0.0 | 0.00 | 0.13 | 0.13 | 99 | 1011.5 |
| 20260505182306 | 39 | 0 | 0.0 | 0.0 | 0.00 | 0.13 | 0.13 | 99 | 1011.6 |
| 20260505182205 | 40 | 0 | 0.0 | 0.0 | 0.00 | 0.13 | 0.13 | 99 | 1011.5 |
| 20260505182105 | 40 | 0 | 0.0 | 0.0 | 0.00 | 0.13 | 0.13 | 99 | 1011.4 |
| 20260505182006 | 40 | 0 | 0.0 | 0.0 | 0.00 | 0.13 | 0.13 | 99 | 1011.7 |
| 20260505181805 | 39 | 0 | 0.0 | 0.0 | 0.00 | 0.13 | 0.13 | 99 | 1011.5 |
| 20260505181705 | 39 | 0 | 0.0 | 0.0 | 0.00 | 0.13 | 0.13 | 99 | 1011.6 |
| 20260505181605 | 39 | 0 | 0.0 | 0.0 | 0.00 | 0.13 | 0.13 | 99 | 1011.7 |
| 20260505181506 | 39 | 0 | 0.0 | 0.0 | 0.00 | 0.13 | 0.13 | 99 | 1011.6 |
| 20260505181406 | 39 | 0 | 0.0 | 0.0 | 0.00 | 0.13 | 0.13 | 99 | 1011.5 |
| 20260505181305 | 39 | 0 | 0.0 | 0.0 | 0.00 | 0.13 | 0.13 | 99 | 1011.5 |
| 20260505181205 | 40 | 0 | 0.0 | 0.0 | 0.00 | 0.13 | 0.13 | 99 | 1011.5 |
| 20260505181105 | 40 | 0 | 0.0 | 0.0 | 0.00 | 0.13 | 0.13 | 99 | 1011.7 |
| 20260505181006 | 40 | 0 | 0.0 | 0.0 | 0.00 | 0.13 | 0.13 | 99 | 1011.5 |
| 20260505180706 | 40 | 0 | 0.0 | 0.0 | 0.00 | 0.13 | 0.13 | 99 | 1011.5 |
| 20260505180605 | 40 | 0 | 0.0 | 0.0 | 0.00 | 0.13 | 0.13 | 99 | 1011.3 |
| 20260505180506 | 40 | 0 | 0.0 | 0.0 | 0.00 | 0.13 | 0.13 | 99 | 1011.4 |
| 20260505180405 | 40 | 0 | 0.0 | 0.0 | 0.00 | 0.13 | 0.13 | 99 | 1011.8 |
| 20260505180305 | 40 | 0 | 0.0 | 0.0 | 0.00 | 0.13 | 0.13 | 99 | 1011.3 |
| 20260505180105 | 40 | 0 | 0.0 | 0.0 | 0.00 | 0.13 | 0.13 | 99 | 1011.4 |
| 20260505180006 | 40 | 0 | 0.0 | 0.0 | 0.00 | 0.13 | 0.13 | 99 | 1011.5 |
| 20260505175905 | 40 | 0 | 0.0 | 0.0 | 0.00 | 0.13 | 0.13 | 99 | 1011.4 |
| 20260505175805 | 40 | 0 | 0.0 | 0.0 | 0.00 | 0.13 | 0.13 | 99 | 1011.6 |
| 20260505175706 | 40 | 0 | 0.0 | 0.0 | 0.00 | 0.13 | 0.13 | 99 | 1011.4 |
| 20260505175605 | 40 | 0 | 0.0 | 0.0 | 0.00 | 0.13 | 0.13 | 99 | 1011.4 |
| 20260505175506 | 40 | 0 | 0.0 | 0.0 | 0.00 | 0.13 | 0.13 | 99 | 1011.5 |
| 20260505175306 | 40 | 0 | 0.0 | 0.0 | 0.00 | 0.13 | 0.13 | 99 | 1011.6 |
| 20260505175205 | 40 | 0 | 0.0 | 0.0 | 0.00 | 0.13 | 0.13 | 99 | 1011.6 |
| 20260505175006 | 40 | 0 | 0.0 | 0.0 | 0.00 | 0.13 | 0.13 | 99 | 1011.6 |
| 20260505174905 | 40 | 0 | 0.0 | 0.0 | 0.00 | 0.13 | 0.13 | 99 | 1011.7 |
| 20260505174805 | 40 | 0 | 0.0 | 0.0 | 0.00 | 0.13 | 0.13 | 99 | 1011.5 |
| 20260505174706 | 40 | 0 | 0.0 | 0.0 | 0.00 | 0.13 | 0.13 | 99 | 1011.5 |
| 20260505174605 | 40 | 0 | 0.0 | 0.0 | 0.00 | 0.13 | 0.13 | 99 | 1011.4 |
| 20260505174505 | 40 | 0 | 0.0 | 0.0 | 0.00 | 0.13 | 0.13 | 99 | 1011.5 |
| 20260505174406 | 40 | 0 | 0.0 | 0.0 | 0.00 | 0.13 | 0.13 | 99 | 1011.6 |
| 20260505174205 | 40 | 0 | 0.0 | 0.0 | 0.00 | 0.13 | 0.13 | 99 | 1011.6 |
| 20260505174105 | 40 | 0 | 0.0 | 0.0 | 0.00 | 0.13 | 0.13 | 99 | 1011.5 |
| 20260505174006 | 40 | 0 | 0.0 | 0.0 | 0.00 | 0.13 | 0.13 | 99 | 1011.6 |
| 20260505173905 | 40 | 0 | 0.0 | 0.0 | 0.00 | 0.13 | 0.13 | 99 | 1011.6 |
| 20260505173805 | 40 | 0 | 0.0 | 0.0 | 0.00 | 0.13 | 0.13 | 99 | 1011.4 |
| 20260505173705 | 40 | 0 | 0.0 | 0.0 | 0.00 | 0.13 | 0.13 | 99 | 1011.7 |
| 20260505173605 | 40 | 0 | 0.0 | 0.0 | 0.00 | 0.13 | 0.13 | 99 | 1011.6 |
| 20260505173506 | 40 | 0 | 0.0 | 0.0 | 0.00 | 0.13 | 0.13 | 99 | 1011.5 |
| 20260505173405 | 40 | 0 | 0.0 | 0.0 | 0.00 | 0.13 | 0.13 | 99 | 1011.5 |
| 20260505173305 | 40 | 0 | 0.0 | 0.0 | 0.00 | 0.13 | 0.13 | 99 | 1011.8 |
| 20260505173205 | 40 | 0 | 0.0 | 0.0 | 0.00 | 0.13 | 0.13 | 99 | 1011.5 |
| 20260505173106 | 40 | 0 | 0.0 | 0.0 | 0.00 | 0.13 | 0.13 | 99 | 1011.3 |
| 20260505173006 | 40 | 0 | 0.0 | 0.0 | 0.00 | 0.13 | 0.13 | 99 | 1011.5 |
| 20260505172905 | 40 | 0 | 0.0 | 0.0 | 0.00 | 0.13 | 0.13 | 99 | 1011.6 |
| 20260505172805 | 40 | 0 | 0.0 | 0.0 | 0.00 | 0.13 | 0.13 | 99 | 1011.6 |
| 20260505172705 | 40 | 0 | 0.0 | 0.0 | 0.00 | 0.13 | 0.13 | 99 | 1011.5 |
| 20260505172605 | 40 | 0 | 0.0 | 0.0 | 0.00 | 0.13 | 0.13 | 99 | 1011.6 |
| 20260505172306 | 40 | 0 | 0.0 | 0.0 | 0.00 | 0.13 | 0.13 | 99 | 1011.5 |
| 20260505172206 | 41 | 0 | 0.0 | 0.0 | 0.00 | 0.13 | 0.13 | 99 | 1011.4 |
| 20260505171905 | 41 | 0 | 0.0 | 0.0 | 0.00 | 0.13 | 0.13 | 99 | 1011.5 |
| 20260505171805 | 40 | 0 | 0.0 | 0.0 | 0.00 | 0.13 | 0.13 | 99 | 1011.5 |
| 20260505171705 | 40 | 0 | 0.0 | 0.0 | 0.00 | 0.13 | 0.13 | 99 | 1011.5 |
| 20260505171605 | 40 | 0 | 0.0 | 0.0 | 0.00 | 0.13 | 0.13 | 99 | 1011.6 |
| 20260505171506 | 40 | 0 | 0.0 | 0.0 | 0.00 | 0.13 | 0.13 | 99 | 1011.5 |
| 20260505171405 | 40 | 0 | 0.0 | 0.0 | 0.00 | 0.13 | 0.13 | 99 | 1011.6 |
| 20260505171305 | 40 | 0 | 0.0 | 0.0 | 0.00 | 0.13 | 0.13 | 99 | 1011.5 |
| 20260505171205 | 40 | 0 | 0.0 | 0.0 | 0.00 | 0.13 | 0.13 | 99 | 1011.4 |
| 20260505170905 | 40 | 0 | 0.0 | 0.0 | 0.00 | 0.13 | 0.13 | 99 | 1011.6 |
| 20260505170805 | 40 | 0 | 0.0 | 0.0 | 0.00 | 0.13 | 0.13 | 99 | 1011.5 |
| 20260505170605 | 41 | 0 | 0.0 | 0.0 | 0.00 | 0.13 | 0.13 | 99 | 1011.6 |
| 20260505170505 | 41 | 0 | 0.0 | 0.0 | 0.00 | 0.13 | 0.13 | 99 | 1011.5 |
| 20260505170205 | 40 | 301 | 0.0 | 2.0 | 0.00 | 0.13 | 0.13 | 99 | 1011.4 |
| 20260505170105 | 41 | 301 | 0.0 | 2.0 | 0.00 | 0.13 | 0.13 | 99 | 1011.6 |
| 20260505170006 | 41 | 301 | 0.0 | 2.0 | 0.00 | 0.13 | 0.13 | 99 | 1011.4 |
| 20260505165905 | 40 | 301 | 0.0 | 2.0 | 0.00 | 0.13 | 0.13 | 99 | 1011.5 |
| 20260505165805 | 40 | 301 | 0.0 | 2.0 | 0.00 | 0.13 | 0.13 | 99 | 1011.8 |
| 20260505165605 | 40 | 318 | 0.0 | 2.0 | 0.00 | 0.13 | 0.13 | 99 | 1011.6 |
| 20260505165505 | 40 | 318 | 0.0 | 2.0 | 0.00 | 0.13 | 0.13 | 99 | 1011.6 |
| 20260505165405 | 40 | 317 | 0.0 | 2.0 | 0.01 | 0.13 | 0.13 | 99 | 1011.7 |
| 20260505165306 | 40 | 317 | 0.0 | 2.0 | 0.01 | 0.13 | 0.13 | 99 | 1011.5 |
| 20260505165105 | 41 | 328 | 0.0 | 2.0 | 0.01 | 0.13 | 0.13 | 99 | 1011.6 |
| 20260505165006 | 41 | 328 | 0.0 | 2.0 | 0.01 | 0.13 | 0.13 | 99 | 1011.5 |
| 20260505164905 | 40 | 328 | 0.0 | 2.0 | 0.01 | 0.13 | 0.13 | 99 | 1011.5 |
| 20260505164806 | 40 | 328 | 0.0 | 2.0 | 0.01 | 0.13 | 0.13 | 99 | 1011.6 |
| 20260505164705 | 40 | 328 | 0.0 | 2.0 | 0.01 | 0.13 | 0.13 | 99 | 1011.5 |
| 20260505164605 | 40 | 314 | 0.0 | 2.0 | 0.01 | 0.13 | 0.13 | 99 | 1011.6 |
| 20260505164506 | 40 | 314 | 0.0 | 2.0 | 0.01 | 0.13 | 0.13 | 99 | 1011.6 |
| 20260505164405 | 40 | 314 | 0.0 | 2.0 | 0.01 | 0.13 | 0.13 | 99 | 1011.6 |
| 20260505164205 | 40 | 0 | 0.0 | 0.0 | 0.01 | 0.13 | 0.13 | 99 | 1011.6 |
| 20260505164105 | 40 | 0 | 0.0 | 0.0 | 0.01 | 0.13 | 0.13 | 99 | 1011.6 |
| 20260505164005 | 40 | 0 | 0.0 | 0.0 | 0.01 | 0.13 | 0.13 | 99 | 1011.6 |
| 20260505163805 | 41 | 0 | 0.0 | 0.0 | 0.01 | 0.13 | 0.13 | 99 | 1011.9 |
| 20260505163705 | 41 | 0 | 0.0 | 0.0 | 0.01 | 0.13 | 0.13 | 99 | 1011.5 |
| 20260505163605 | 41 | 0 | 0.0 | 0.0 | 0.01 | 0.13 | 0.13 | 99 | 1011.6 |
| 20260505163506 | 41 | 0 | 0.0 | 0.0 | 0.01 | 0.13 | 0.13 | 99 | 1011.7 |
| 20260505163305 | 40 | 0 | 0.0 | 0.0 | 0.01 | 0.13 | 0.13 | 99 | 1011.6 |
| 20260505163205 | 40 | 0 | 0.0 | 0.0 | 0.01 | 0.13 | 0.13 | 99 | 1011.8 |
| 20260505163105 | 40 | 0 | 0.0 | 0.0 | 0.01 | 0.13 | 0.13 | 99 | 1011.8 |
| 20260505163007 | 40 | 0 | 0.0 | 0.0 | 0.01 | 0.13 | 0.13 | 99 | 1011.7 |
| 20260505162905 | 40 | 0 | 0.0 | 0.0 | 0.01 | 0.13 | 0.13 | 99 | 1011.7 |
| 20260505162806 | 40 | 0 | 0.0 | 0.0 | 0.01 | 0.13 | 0.13 | 99 | 1011.7 |
| 20260505162705 | 40 | 0 | 0.0 | 0.0 | 0.01 | 0.13 | 0.13 | 99 | 1011.6 |
| 20260505162605 | 40 | 0 | 0.0 | 0.0 | 0.01 | 0.13 | 0.13 | 99 | 1011.7 |
| 20260505162506 | 40 | 0 | 0.0 | 0.0 | 0.01 | 0.13 | 0.13 | 99 | 1011.6 |
| 20260505162405 | 40 | 0 | 0.0 | 0.0 | 0.01 | 0.13 | 0.13 | 99 | 1011.6 |
| 20260505162006 | 40 | 337 | 0.0 | 2.0 | 0.01 | 0.13 | 0.13 | 99 | 1011.7 |
| 20260505161905 | 40 | 337 | 0.0 | 2.0 | 0.01 | 0.13 | 0.13 | 99 | 1011.7 |
| 20260505161805 | 41 | 337 | 0.0 | 2.0 | 0.01 | 0.13 | 0.13 | 99 | 1011.8 |
| 20260505161605 | 41 | 337 | 0.0 | 2.0 | 0.01 | 0.13 | 0.13 | 99 | 1011.5 |
| 20260505161505 | 40 | 333 | 1.0 | 2.0 | 0.01 | 0.13 | 0.13 | 99 | 1011.8 |
| 20260505161405 | 40 | 313 | 1.0 | 2.0 | 0.01 | 0.13 | 0.13 | 99 | 1011.6 |
| 20260505161305 | 40 | 306 | 1.0 | 2.0 | 0.01 | 0.13 | 0.13 | 99 | 1011.7 |
| 20260505161205 | 40 | 292 | 1.0 | 2.0 | 0.01 | 0.13 | 0.13 | 99 | 1011.7 |
| 20260505161105 | 40 | 273 | 0.0 | 2.0 | 0.01 | 0.13 | 0.13 | 99 | 1011.7 |
| 20260505161006 | 40 | 280 | 1.0 | 2.0 | 0.01 | 0.13 | 0.13 | 99 | 1011.7 |
| 20260505160905 | 40 | 290 | 1.0 | 2.0 | 0.01 | 0.13 | 0.13 | 99 | 1011.8 |
| 20260505160805 | 40 | 290 | 1.0 | 2.0 | 0.01 | 0.13 | 0.13 | 99 | 1011.7 |
| 20260505160705 | 40 | 290 | 1.0 | 2.0 | 0.01 | 0.13 | 0.13 | 99 | 1011.6 |
| 20260505160605 | 40 | 290 | 1.0 | 2.0 | 0.01 | 0.13 | 0.13 | 99 | 1011.7 |
| 20260505160506 | 40 | 290 | 1.0 | 2.0 | 0.01 | 0.13 | 0.13 | 99 | 1011.6 |
| 20260505160405 | 40 | 315 | 0.0 | 2.0 | 0.01 | 0.13 | 0.13 | 99 | 1011.6 |
| 20260505160306 | 40 | 337 | 0.0 | 2.0 | 0.01 | 0.13 | 0.13 | 99 | 1011.7 |
| 20260505160205 | 40 | 337 | 0.0 | 2.0 | 0.01 | 0.13 | 0.13 | 99 | 1011.7 |
| 20260505160105 | 40 | 337 | 0.0 | 2.0 | 0.01 | 0.13 | 0.13 | 99 | 1011.7 |
| 20260505153305 | 40 | 337 | 0.0 | 2.0 | 0.01 | 0.12 | 0.12 | 99 | 1012.0 |
| 20260505153205 | 40 | 337 | 0.0 | 2.0 | 0.01 | 0.12 | 0.12 | 99 | 1011.9 |
| 20260505153006 | 40 | 349 | 0.0 | 2.0 | 0.01 | 0.12 | 0.12 | 99 | 1011.8 |
| 20260505152805 | 40 | 349 | 0.0 | 2.0 | 0.01 | 0.12 | 0.12 | 99 | 1011.9 |
| 20260505152705 | 40 | 349 | 0.0 | 2.0 | 0.01 | 0.12 | 0.12 | 99 | 1011.8 |
| 20260505152605 | 41 | 1 | 0.0 | 2.0 | 0.01 | 0.12 | 0.12 | 99 | 1011.8 |
| 20260505152506 | 41 | 1 | 0.0 | 2.0 | 0.01 | 0.12 | 0.12 | 99 | 1011.7 |
| 20260505152405 | 40 | 1 | 0.0 | 2.0 | 0.01 | 0.12 | 0.12 | 99 | 1011.9 |
| 20260505152305 | 40 | 1 | 0.0 | 2.0 | 0.01 | 0.12 | 0.12 | 99 | 1011.9 |
| 20260505152205 | 40 | 320 | 0.0 | 2.0 | 0.01 | 0.12 | 0.12 | 99 | 1011.7 |
| 20260505152105 | 40 | 292 | 0.0 | 2.0 | 0.01 | 0.12 | 0.12 | 99 | 1011.8 |
| 20260505152005 | 40 | 292 | 0.0 | 2.0 | 0.01 | 0.12 | 0.12 | 99 | 1011.8 |
| 20260505151905 | 40 | 292 | 0.0 | 2.0 | 0.01 | 0.12 | 0.12 | 99 | 1011.9 |
| 20260505151805 | 40 | 303 | 0.0 | 2.0 | 0.01 | 0.12 | 0.12 | 99 | 1011.7 |
| 20260505151705 | 40 | 303 | 0.0 | 2.0 | 0.01 | 0.12 | 0.12 | 99 | 1011.8 |
| 20260505151605 | 40 | 303 | 0.0 | 2.0 | 0.01 | 0.12 | 0.12 | 99 | 1011.7 |
| 20260505151506 | 40 | 306 | 0.0 | 2.0 | 0.01 | 0.12 | 0.12 | 99 | 1011.7 |
| 20260505151405 | 40 | 306 | 0.0 | 2.0 | 0.01 | 0.12 | 0.12 | 99 | 1011.7 |
| 20260505151305 | 40 | 313 | 0.0 | 2.0 | 0.01 | 0.12 | 0.12 | 99 | 1011.6 |
| 20260505151206 | 40 | 321 | 0.0 | 2.0 | 0.01 | 0.12 | 0.12 | 99 | 1011.7 |
| 20260505151105 | 40 | 331 | 1.0 | 2.0 | 0.01 | 0.12 | 0.12 | 99 | 1011.9 |
| 20260505151005 | 40 | 333 | 1.0 | 2.0 | 0.01 | 0.12 | 0.12 | 99 | 1011.7 |
| 20260505150905 | 40 | 334 | 1.0 | 4.0 | 0.01 | 0.12 | 0.12 | 99 | 1012.0 |
| 20260505150805 | 40 | 334 | 1.0 | 4.0 | 0.01 | 0.12 | 0.12 | 99 | 1011.8 |
| 20260505150705 | 40 | 334 | 1.0 | 4.0 | 0.01 | 0.12 | 0.12 | 99 | 1011.9 |
| 20260505150605 | 40 | 335 | 1.0 | 4.0 | 0.01 | 0.12 | 0.12 | 99 | 1011.8 |
| 20260505150506 | 40 | 336 | 1.0 | 4.0 | 0.01 | 0.12 | 0.12 | 99 | 1011.9 |
| 20260505150405 | 40 | 337 | 1.0 | 4.0 | 0.01 | 0.12 | 0.12 | 99 | 1011.9 |
| 20260505150305 | 40 | 337 | 1.0 | 4.0 | 0.01 | 0.12 | 0.12 | 99 | 1011.6 |
| 20260505150205 | 40 | 328 | 2.0 | 4.0 | 0.01 | 0.12 | 0.12 | 99 | 1011.9 |
| 20260505150105 | 40 | 324 | 2.0 | 4.0 | 0.00 | 0.11 | 0.11 | 99 | 1011.9 |
| 20260505140605 | 40 | 326 | 0.0 | 2.0 | 0.00 | 0.11 | 0.11 | 99 | 1011.9 |
| 20260505140506 | 40 | 326 | 0.0 | 2.0 | 0.00 | 0.11 | 0.11 | 99 | 1011.7 |
| 20260505140405 | 40 | 327 | 0.0 | 2.0 | 0.00 | 0.11 | 0.11 | 99 | 1012.0 |
| 20260505140305 | 40 | 324 | 0.0 | 2.0 | 0.00 | 0.11 | 0.11 | 99 | 1011.9 |
| 20260505140205 | 40 | 315 | 0.0 | 2.0 | 0.00 | 0.11 | 0.11 | 99 | 1012.0 |
| 20260505130305 | 40 | 304 | 1.0 | 2.0 | 0.00 | 0.11 | 0.11 | 99 | 1012.2 |
| 20260505130205 | 40 | 314 | 1.0 | 2.0 | 0.00 | 0.11 | 0.11 | 99 | 1012.1 |
| 20260505130105 | 40 | 317 | 1.0 | 2.0 | 0.00 | 0.11 | 0.11 | 99 | 1012.2 |
| 20260505125005 | 39 | 314 | 0.0 | 2.0 | 0.00 | 0.11 | 0.11 | 99 | 1012.2 |
| 20260505124905 | 40 | 314 | 0.0 | 2.0 | 0.00 | 0.11 | 0.11 | 99 | 1012.0 |
| 20260505124805 | 40 | 314 | 0.0 | 2.0 | 0.00 | 0.11 | 0.11 | 99 | 1012.2 |
| 20260505124605 | 40 | 314 | 0.0 | 2.0 | 0.00 | 0.11 | 0.11 | 99 | 1012.2 |
| 20260505124505 | 40 | 314 | 0.0 | 2.0 | 0.00 | 0.11 | 0.11 | 99 | 1012.2 |
| 20260505124305 | 40 | 314 | 0.0 | 2.0 | 0.00 | 0.11 | 0.11 | 99 | 1012.0 |
| 20260505124007 | 40 | 305 | 1.0 | 2.0 | 0.00 | 0.11 | 0.11 | 99 | 1012.1 |
| 20260505123905 | 39 | 309 | 1.0 | 2.0 | 0.00 | 0.11 | 0.11 | 99 | 1012.0 |
| 20260505123805 | 39 | 313 | 1.0 | 2.0 | 0.00 | 0.11 | 0.11 | 99 | 1012.2 |
| 20260505123705 | 39 | 315 | 1.0 | 2.0 | 0.00 | 0.11 | 0.11 | 99 | 1011.9 |
| 20260505123605 | 39 | 316 | 1.0 | 2.0 | 0.00 | 0.11 | 0.11 | 99 | 1012.1 |
| 20260505123105 | 40 | 330 | 1.0 | 2.0 | 0.00 | 0.11 | 0.11 | 99 | 1012.0 |
| 20260505123006 | 40 | 334 | 1.0 | 2.0 | 0.00 | 0.11 | 0.11 | 99 | 1012.0 |
| 20260505122905 | 40 | 333 | 1.0 | 2.0 | 0.00 | 0.11 | 0.11 | 99 | 1012.1 |
| 20260505122805 | 40 | 337 | 1.0 | 2.0 | 0.00 | 0.11 | 0.11 | 99 | 1012.2 |
| 20260505122705 | 40 | 337 | 1.0 | 2.0 | 0.00 | 0.11 | 0.11 | 99 | 1012.2 |
| 20260505122605 | 40 | 337 | 0.0 | 2.0 | 0.00 | 0.11 | 0.11 | 99 | 1012.2 |
| 20260505122306 | 40 | 341 | 0.0 | 2.0 | 0.00 | 0.11 | 0.11 | 99 | 1012.1 |
| 20260505122205 | 40 | 336 | 0.0 | 2.0 | 0.00 | 0.11 | 0.11 | 99 | 1012.2 |
| 20260505122105 | 40 | 324 | 0.0 | 2.0 | 0.00 | 0.11 | 0.11 | 99 | 1012.0 |
| 20260505122005 | 40 | 318 | 0.0 | 2.0 | 0.00 | 0.11 | 0.11 | 99 | 1012.1 |
| 20260505121905 | 40 | 318 | 0.0 | 2.0 | 0.00 | 0.11 | 0.11 | 99 | 1012.4 |
| 20260505121804 | 40 | 305 | 0.0 | 2.0 | 0.00 | 0.11 | 0.11 | 99 | 1012.1 |
| 20260505121705 | 40 | 307 | 0.0 | 2.0 | 0.00 | 0.11 | 0.11 | 99 | 1012.0 |
| 20260505121605 | 40 | 305 | 1.0 | 2.0 | 0.00 | 0.11 | 0.11 | 99 | 1012.2 |
| 20260505121506 | 40 | 300 | 1.0 | 2.0 | 0.00 | 0.11 | 0.11 | 99 | 1012.3 |
| 20260505121405 | 40 | 300 | 1.0 | 2.0 | 0.00 | 0.11 | 0.11 | 99 | 1012.0 |
| 20260505121305 | 40 | 300 | 1.0 | 2.0 | 0.00 | 0.11 | 0.11 | 99 | 1011.9 |
| 20260505121205 | 40 | 300 | 1.0 | 2.0 | 0.00 | 0.11 | 0.11 | 99 | 1012.1 |
| 20260505121105 | 40 | 300 | 1.0 | 2.0 | 0.00 | 0.11 | 0.11 | 99 | 1012.2 |
| 20260505121005 | 39 | 299 | 0.0 | 2.0 | 0.00 | 0.11 | 0.11 | 99 | 1012.1 |
| 20260505120805 | 39 | 306 | 1.0 | 2.0 | 0.00 | 0.11 | 0.11 | 99 | 1011.9 |
| 20260505120705 | 39 | 298 | 0.0 | 2.0 | 0.00 | 0.11 | 0.11 | 99 | 1012.3 |
| 20260505120605 | 40 | 304 | 0.0 | 2.0 | 0.00 | 0.11 | 0.11 | 99 | 1012.2 |
| 20260505120506 | 40 | 315 | 0.0 | 2.0 | 0.00 | 0.11 | 0.11 | 99 | 1012.0 |
| 20260505120405 | 40 | 315 | 0.0 | 2.0 | 0.00 | 0.11 | 0.11 | 99 | 1011.9 |
| 20260505120305 | 40 | 315 | 0.0 | 2.0 | 0.00 | 0.11 | 0.11 | 99 | 1012.2 |
| 20260505120204 | 40 | 315 | 0.0 | 2.0 | 0.00 | 0.11 | 0.11 | 99 | 1012.1 |
| 20260505120105 | 40 | 315 | 0.0 | 2.0 | 0.00 | 0.11 | 0.11 | 99 | 1012.0 |
| 20260505120006 | 40 | 315 | 0.0 | 2.0 | 0.00 | 0.11 | 0.11 | 99 | 1012.1 |
| 20260505115905 | 40 | 315 | 0.0 | 2.0 | 0.00 | 0.11 | 0.11 | 99 | 1012.0 |
| 20260505115705 | 40 | 309 | 1.0 | 2.0 | 0.00 | 0.11 | 0.11 | 99 | 1012.1 |
| 20260505115605 | 40 | 303 | 1.0 | 2.0 | 0.00 | 0.11 | 0.11 | 99 | 1011.9 |
| 20260505115506 | 40 | 305 | 1.0 | 2.0 | 0.00 | 0.11 | 0.11 | 99 | 1012.1 |
| 20260505115405 | 40 | 306 | 1.0 | 2.0 | 0.00 | 0.11 | 0.11 | 99 | 1012.0 |
| 20260505115305 | 40 | 305 | 1.0 | 2.0 | 0.00 | 0.11 | 0.11 | 99 | 1012.0 |
| 20260505115205 | 40 | 305 | 1.0 | 2.0 | 0.00 | 0.11 | 0.11 | 99 | 1012.1 |
| 20260505115105 | 40 | 304 | 1.0 | 2.0 | 0.00 | 0.11 | 0.11 | 99 | 1011.9 |
| 20260505115006 | 40 | 302 | 1.0 | 2.0 | 0.00 | 0.11 | 0.11 | 99 | 1012.0 |
| 20260505114905 | 40 | 302 | 1.0 | 2.0 | 0.00 | 0.11 | 0.11 | 99 | 1012.2 |
| 20260505114805 | 40 | 298 | 1.0 | 2.0 | 0.00 | 0.11 | 0.11 | 99 | 1012.1 |
| 20260505114605 | 40 | 301 | 1.0 | 2.0 | 0.00 | 0.11 | 0.11 | 99 | 1012.2 |
| 20260505114505 | 40 | 302 | 1.0 | 2.0 | 0.01 | 0.11 | 0.11 | 99 | 1011.9 |
| 20260505114405 | 40 | 300 | 1.0 | 2.0 | 0.01 | 0.11 | 0.11 | 99 | 1012.1 |
| 20260505114305 | 40 | 308 | 1.0 | 2.0 | 0.01 | 0.11 | 0.11 | 99 | 1012.0 |
| 20260505114205 | 40 | 315 | 1.0 | 2.0 | 0.01 | 0.11 | 0.11 | 99 | 1012.0 |
| 20260505114105 | 39 | 322 | 1.0 | 2.0 | 0.01 | 0.11 | 0.11 | 99 | 1012.1 |
| 20260505114006 | 39 | 331 | 1.0 | 2.0 | 0.01 | 0.11 | 0.11 | 99 | 1012.1 |
| 20260505113905 | 39 | 342 | 1.0 | 2.0 | 0.01 | 0.11 | 0.11 | 99 | 1011.9 |
| 20260505113705 | 40 | 342 | 1.0 | 2.0 | 0.01 | 0.11 | 0.11 | 99 | 1012.2 |
| 20260505113605 | 40 | 342 | 1.0 | 2.0 | 0.01 | 0.11 | 0.11 | 99 | 1012.3 |
| 20260505113506 | 40 | 343 | 1.0 | 2.0 | 0.01 | 0.11 | 0.11 | 99 | 1012.1 |
| 20260505113305 | 40 | 330 | 1.0 | 2.0 | 0.01 | 0.11 | 0.11 | 99 | 1012.2 |
| 20260505113204 | 40 | 322 | 1.0 | 2.0 | 0.01 | 0.11 | 0.11 | 99 | 1012.2 |
| 20260505113105 | 39 | 323 | 1.0 | 2.0 | 0.01 | 0.11 | 0.11 | 99 | 1012.3 |
| 20260505113005 | 39 | 328 | 1.0 | 2.0 | 0.01 | 0.11 | 0.11 | 99 | 1012.1 |
| 20260505112905 | 39 | 322 | 1.0 | 2.0 | 0.01 | 0.11 | 0.11 | 99 | 1012.1 |
| 20260505112805 | 39 | 327 | 1.0 | 2.0 | 0.01 | 0.11 | 0.11 | 99 | 1012.2 |
| 20260505112705 | 39 | 328 | 1.0 | 2.0 | 0.01 | 0.11 | 0.11 | 99 | 1011.9 |
| 20260505112605 | 39 | 326 | 2.0 | 4.0 | 0.01 | 0.11 | 0.11 | 99 | 1012.1 |
| 20260505112505 | 39 | 328 | 2.0 | 4.0 | 0.01 | 0.11 | 0.11 | 99 | 1012.3 |
| 20260505112205 | 39 | 330 | 2.0 | 4.0 | 0.01 | 0.11 | 0.11 | 99 | 1012.2 |
| 20260505112006 | 39 | 321 | 2.0 | 4.0 | 0.01 | 0.11 | 0.11 | 99 | 1012.1 |
| 20260505111905 | 39 | 320 | 2.0 | 4.0 | 0.01 | 0.11 | 0.11 | 99 | 1011.9 |
| 20260505111805 | 40 | 318 | 2.0 | 4.0 | 0.01 | 0.11 | 0.11 | 99 | 1012.2 |
| 20260505111705 | 40 | 316 | 2.0 | 4.0 | 0.01 | 0.11 | 0.11 | 99 | 1012.2 |
| 20260505111605 | 40 | 316 | 1.0 | 2.0 | 0.01 | 0.11 | 0.11 | 99 | 1012.3 |
| 20260505111405 | 40 | 313 | 1.0 | 2.0 | 0.01 | 0.11 | 0.11 | 99 | 1012.0 |
| 20260505111305 | 40 | 310 | 1.0 | 2.0 | 0.01 | 0.11 | 0.11 | 99 | 1012.2 |
| 20260505111205 | 40 | 318 | 1.0 | 2.0 | 0.01 | 0.11 | 0.11 | 99 | 1012.0 |
| 20260505111105 | 40 | 322 | 1.0 | 2.0 | 0.01 | 0.11 | 0.11 | 99 | 1012.1 |
| 20260505111005 | 40 | 318 | 1.0 | 2.0 | 0.01 | 0.11 | 0.11 | 99 | 1012.0 |
| 20260505110905 | 40 | 316 | 1.0 | 2.0 | 0.01 | 0.11 | 0.11 | 99 | 1012.0 |
| 20260505110805 | 40 | 312 | 1.0 | 2.0 | 0.01 | 0.11 | 0.11 | 99 | 1012.0 |
| 20260505110705 | 40 | 312 | 1.0 | 2.0 | 0.01 | 0.11 | 0.11 | 99 | 1012.2 |
| 20260505110506 | 40 | 308 | 1.0 | 2.0 | 0.01 | 0.11 | 0.11 | 99 | 1012.1 |
| 20260505110405 | 40 | 308 | 1.0 | 2.0 | 0.01 | 0.11 | 0.11 | 99 | 1012.0 |
| 20260505110305 | 40 | 306 | 1.0 | 2.0 | 0.01 | 0.11 | 0.11 | 99 | 1012.1 |
| 20260505110205 | 40 | 304 | 1.0 | 2.0 | 0.01 | 0.11 | 0.11 | 99 | 1011.9 |
| 20260505110105 | 40 | 304 | 1.0 | 2.0 | 0.01 | 0.11 | 0.11 | 99 | 1012.2 |
| 20260505102205 | 40 | 295 | 1.0 | 2.0 | 0.02 | 0.09 | 0.09 | 99 | 1012.2 |
| 20260505102104 | 40 | 292 | 1.0 | 2.0 | 0.02 | 0.09 | 0.09 | 99 | 1012.2 |
| 20260505102006 | 40 | 295 | 1.0 | 2.0 | 0.02 | 0.09 | 0.09 | 99 | 1012.2 |
| 20260505101905 | 40 | 302 | 1.0 | 2.0 | 0.02 | 0.09 | 0.09 | 99 | 1012.1 |
| 20260505101805 | 40 | 306 | 2.0 | 2.0 | 0.02 | 0.09 | 0.09 | 99 | 1012.2 |
| 20260505101605 | 40 | 309 | 2.0 | 2.0 | 0.02 | 0.09 | 0.09 | 99 | 1012.2 |
| 20260505101506 | 40 | 309 | 2.0 | 4.0 | 0.02 | 0.09 | 0.09 | 99 | 1012.4 |
| 20260505101405 | 40 | 315 | 2.0 | 4.0 | 0.02 | 0.09 | 0.09 | 99 | 1012.3 |
| 20260505101305 | 40 | 315 | 2.0 | 4.0 | 0.02 | 0.09 | 0.09 | 99 | 1012.4 |
| 20260505101105 | 41 | 317 | 2.0 | 4.0 | 0.02 | 0.09 | 0.09 | 99 | 1012.3 |
| 20260505101006 | 41 | 321 | 2.0 | 4.0 | 0.02 | 0.09 | 0.09 | 99 | 1012.2 |
| 20260505100905 | 41 | 319 | 2.0 | 4.0 | 0.02 | 0.09 | 0.09 | 99 | 1012.2 |
| 20260505100805 | 40 | 321 | 2.0 | 4.0 | 0.02 | 0.09 | 0.09 | 99 | 1012.3 |
| 20260505100705 | 40 | 321 | 2.0 | 4.0 | 0.02 | 0.09 | 0.09 | 99 | 1012.1 |
| 20260505100505 | 41 | 326 | 2.0 | 4.0 | 0.02 | 0.09 | 0.09 | 99 | 1012.2 |
| 20260505100405 | 41 | 325 | 2.0 | 4.0 | 0.04 | 0.09 | 0.09 | 99 | 1012.3 |
| 20260505100305 | 40 | 323 | 2.0 | 4.0 | 0.04 | 0.09 | 0.09 | 99 | 1012.2 |
| 20260505100205 | 40 | 320 | 2.0 | 4.0 | 0.04 | 0.09 | 0.09 | 99 | 1012.0 |
| 20260505095905 | 41 | 321 | 2.0 | 4.0 | 0.02 | 0.08 | 0.08 | 99 | 1012.1 |
| 20260505095804 | 40 | 322 | 2.0 | 4.0 | 0.02 | 0.08 | 0.08 | 99 | 1012.2 |
| 20260505095704 | 40 | 319 | 3.0 | 6.0 | 0.02 | 0.08 | 0.08 | 99 | 1012.2 |
| 20260505095505 | 40 | 317 | 3.0 | 6.0 | 0.02 | 0.08 | 0.08 | 99 | 1012.2 |
| 20260505095405 | 40 | 316 | 3.0 | 6.0 | 0.04 | 0.08 | 0.08 | 99 | 1012.1 |
| 20260505095305 | 39 | 317 | 3.0 | 6.0 | 0.04 | 0.08 | 0.08 | 99 | 1012.3 |
| 20260505095105 | 40 | 319 | 3.0 | 6.0 | 0.04 | 0.08 | 0.08 | 99 | 1012.4 |
| 20260505095005 | 40 | 316 | 4.0 | 6.0 | 0.04 | 0.08 | 0.08 | 99 | 1012.3 |
| 20260505094904 | 40 | 316 | 4.0 | 6.0 | 0.05 | 0.08 | 0.08 | 99 | 1012.2 |
| 20260505094805 | 40 | 312 | 3.0 | 6.0 | 0.05 | 0.08 | 0.08 | 99 | 1012.1 |
| 20260505094605 | 40 | 316 | 3.0 | 4.0 | 0.05 | 0.08 | 0.08 | 99 | 1012.2 |
| 20260505094506 | 40 | 316 | 2.0 | 4.0 | 0.05 | 0.08 | 0.08 | 99 | 1012.1 |
| 20260505094305 | 41 | 315 | 2.0 | 4.0 | 0.05 | 0.08 | 0.08 | 99 | 1012.1 |
| 20260505094205 | 41 | 314 | 1.0 | 4.0 | 0.05 | 0.08 | 0.08 | 99 | 1012.4 |
| 20260505094105 | 41 | 312 | 1.0 | 4.0 | 0.05 | 0.08 | 0.08 | 99 | 1012.2 |
| 20260505093905 | 41 | 313 | 1.0 | 2.0 | 0.06 | 0.08 | 0.08 | 99 | 1012.2 |
| 20260505093508 | 41 | 314 | 0.0 | 2.0 | 0.06 | 0.08 | 0.08 | 99 | 1012.3 |
| 20260505093405 | 42 | 314 | 0.0 | 2.0 | 0.06 | 0.08 | 0.08 | 99 | 1012.3 |
| 20260505093307 | 42 | 314 | 1.0 | 2.0 | 0.06 | 0.08 | 0.08 | 99 | 1012.3 |
| 20260505092904 | 41 | 295 | 1.0 | 2.0 | 0.06 | 0.08 | 0.08 | 99 | 1012.3 |
| 20260505092804 | 41 | 311 | 0.0 | 2.0 | 0.07 | 0.08 | 0.08 | 99 | 1012.5 |
| 20260505092605 | 41 | 287 | 0.0 | 2.0 | 0.07 | 0.08 | 0.08 | 99 | 1012.3 |
| 20260505092505 | 41 | 285 | 0.0 | 2.0 | 0.06 | 0.07 | 0.07 | 99 | 1012.3 |
| 20260505092405 | 41 | 288 | 0.0 | 2.0 | 0.06 | 0.07 | 0.07 | 99 | 1012.1 |
| 20260505092205 | 40 | 303 | 0.0 | 2.0 | 0.06 | 0.07 | 0.07 | 99 | 1012.1 |
| 20260505092104 | 40 | 301 | 0.0 | 2.0 | 0.06 | 0.07 | 0.07 | 99 | 1012.3 |
| 20260505092005 | 40 | 292 | 0.0 | 2.0 | 0.06 | 0.07 | 0.07 | 99 | 1012.3 |
| 20260505091804 | 40 | 287 | 0.0 | 2.0 | 0.07 | 0.07 | 0.07 | 97 | 1012.2 |
| 20260505091705 | 39 | 257 | 0.0 | 2.0 | 0.07 | 0.07 | 0.07 | 95 | 1012.2 |
| 20260505091605 | 40 | 198 | 0.0 | 2.0 | 0.07 | 0.07 | 0.07 | 97 | 1012.4 |
| 20260505091506 | 40 | 207 | 1.0 | 2.0 | 0.07 | 0.07 | 0.07 | 98 | 1012.2 |
| 20260505091405 | 40 | 207 | 1.0 | 2.0 | 0.07 | 0.07 | 0.07 | 99 | 1012.4 |
| 20260505091204 | 40 | 206 | 1.0 | 2.0 | 0.07 | 0.07 | 0.07 | 97 | 1012.3 |
| 20260505091105 | 40 | 204 | 1.0 | 2.0 | 0.07 | 0.07 | 0.07 | 97 | 1012.3 |
| 20260505091005 | 39 | 206 | 1.0 | 2.0 | 0.07 | 0.07 | 0.07 | 97 | 1012.4 |
| 20260505090805 | 39 | 204 | 1.0 | 2.0 | 0.07 | 0.07 | 0.07 | 97 | 1012.3 |
| 20260505090705 | 39 | 204 | 1.0 | 2.0 | 0.07 | 0.07 | 0.07 | 97 | 1012.5 |
| 20260505090605 | 39 | 222 | 1.0 | 2.0 | 0.07 | 0.07 | 0.07 | 95 | 1012.4 |
| 20260505090505 | 40 | 225 | 1.0 | 2.0 | 0.06 | 0.06 | 0.06 | 96 | 1012.2 |
| 20260505090404 | 40 | 225 | 0.0 | 2.0 | 0.06 | 0.06 | 0.06 | 96 | 1012.4 |
| 20260505090304 | 40 | 217 | 0.0 | 2.0 | 0.06 | 0.06 | 0.06 | 97 | 1012.1 |
| 20260505090105 | 40 | 248 | 0.0 | 2.0 | 0.06 | 0.06 | 0.06 | 97 | 1012.3 |
| 20260505090005 | 40 | 135 | 0.0 | 2.0 | 0.06 | 0.06 | 0.06 | 98 | 1012.4 |
| 20260505085905 | 40 | 135 | 0.0 | 2.0 | 0.06 | 0.06 | 0.06 | 98 | 1012.3 |
| 20260505085604 | 40 | 135 | 0.0 | 2.0 | 0.05 | 0.05 | 0.05 | 97 | 1012.5 |
| 20260505085404 | 40 | 142 | 0.0 | 2.0 | 0.05 | 0.05 | 0.05 | 97 | 1012.2 |
| 20260505085205 | 40 | 176 | 0.0 | 2.0 | 0.04 | 0.04 | 0.04 | 96 | 1012.4 |
| 20260505085104 | 40 | 190 | 1.0 | 2.0 | 0.04 | 0.04 | 0.04 | 96 | 1012.2 |
| 20260505085005 | 39 | 199 | 1.0 | 2.0 | 0.04 | 0.04 | 0.04 | 96 | 1012.5 |
| 20260505084904 | 39 | 202 | 0.0 | 2.0 | 0.04 | 0.04 | 0.04 | 95 | 1012.4 |
| 20260505084805 | 39 | 202 | 0.0 | 2.0 | 0.04 | 0.04 | 0.04 | 95 | 1012.4 |
| 20260505084705 | 39 | 202 | 0.0 | 2.0 | 0.04 | 0.04 | 0.04 | 95 | 1012.3 |
| 20260505084605 | 39 | 210 | 1.0 | 2.0 | 0.04 | 0.04 | 0.04 | 95 | 1012.4 |
| 20260505084505 | 39 | 205 | 1.0 | 2.0 | 0.04 | 0.04 | 0.04 | 96 | 1012.4 |
| 20260505084404 | 39 | 207 | 1.0 | 2.0 | 0.04 | 0.04 | 0.04 | 95 | 1012.5 |
| 20260505084204 | 39 | 207 | 0.0 | 2.0 | 0.02 | 0.02 | 0.02 | 95 | 1012.2 |
| 20260505084105 | 39 | 192 | 0.0 | 2.0 | 0.02 | 0.02 | 0.02 | 95 | 1012.3 |
| 20260505084006 | 39 | 215 | 0.0 | 2.0 | 0.02 | 0.02 | 0.02 | 96 | 1012.3 |
| 20260505083805 | 39 | 208 | 0.0 | 2.0 | 0.02 | 0.02 | 0.02 | 97 | 1012.2 |
| 20260505083705 | 40 | 208 | 0.0 | 2.0 | 0.02 | 0.02 | 0.02 | 97 | 1012.2 |
| 20260505083604 | 40 | 188 | 0.0 | 2.0 | 0.02 | 0.02 | 0.02 | 98 | 1012.2 |
| 20260505083505 | 40 | 203 | 0.0 | 2.0 | 0.02 | 0.02 | 0.02 | 98 | 1012.5 |
| 20260505083204 | 40 | 203 | 0.0 | 2.0 | 0.02 | 0.02 | 0.02 | 98 | 1012.4 |
| 20260505083105 | 41 | 203 | 0.0 | 2.0 | 0.02 | 0.02 | 0.02 | 98 | 1012.4 |
| 20260505083005 | 41 | 203 | 0.0 | 2.0 | 0.02 | 0.02 | 0.02 | 98 | 1012.2 |
| 20260505082905 | 41 | 197 | 0.0 | 2.0 | 0.02 | 0.02 | 0.02 | 96 | 1012.2 |
| 20260505082805 | 41 | 181 | 0.0 | 2.0 | 0.01 | 0.01 | 0.01 | 97 | 1012.5 |
| 20260505082704 | 40 | 181 | 0.0 | 2.0 | 0.01 | 0.01 | 0.01 | 97 | 1012.2 |
| 20260505082604 | 40 | 181 | 0.0 | 2.0 | 0.01 | 0.01 | 0.01 | 97 | 1012.5 |
| 20260505082505 | 40 | 181 | 0.0 | 2.0 | 0.01 | 0.01 | 0.01 | 96 | 1012.3 |
| 20260505082404 | 40 | 181 | 0.0 | 2.0 | 0.01 | 0.01 | 0.01 | 96 | 1012.1 |
| 20260505082305 | 40 | 181 | 0.0 | 2.0 | 0.01 | 0.01 | 0.01 | 95 | 1012.2 |
| 20260505082205 | 41 | 181 | 0.0 | 2.0 | 0.01 | 0.01 | 0.01 | 94 | 1012.2 |
| 20260505081905 | 41 | 181 | 0.0 | 2.0 | 0.00 | 0.00 | 0.00 | 93 | 1012.2 |
| 20260505081805 | 41 | 0 | 0.0 | 0.0 | 0.00 | 0.00 | 0.00 | 94 | 1012.1 |
| 20260505081705 | 41 | 0 | 0.0 | 0.0 | 0.00 | 0.00 | 0.00 | 94 | 1012.2 |
| 20260505081604 | 41 | 0 | 0.0 | 0.0 | 0.00 | 0.00 | 0.00 | 94 | 1012.3 |
| 20260505081505 | 41 | 0 | 0.0 | 0.0 | 0.00 | 0.00 | 0.00 | 94 | 1012.1 |
| 20260505081404 | 41 | 0 | 0.0 | 0.0 | 0.00 | 0.00 | 0.00 | 93 | 1012.3 |
| 20260505081305 | 41 | 0 | 0.0 | 0.0 | 0.00 | 0.00 | 0.00 | 93 | 1012.4 |
| 20260505081205 | 41 | 225 | 0.0 | 2.0 | 0.00 | 0.00 | 0.00 | 93 | 1012.3 |
| 20260505081104 | 41 | 225 | 0.0 | 2.0 | 0.00 | 0.00 | 0.00 | 93 | 1012.1 |
| 20260505081005 | 41 | 225 | 0.0 | 2.0 | 0.00 | 0.00 | 0.00 | 94 | 1012.2 |
| 20260505080904 | 41 | 225 | 0.0 | 2.0 | 0.00 | 0.00 | 0.00 | 93 | 1012.1 |
| 20260505080804 | 41 | 225 | 0.0 | 2.0 | 0.00 | 0.00 | 0.00 | 92 | 1012.1 |
| 20260505080705 | 41 | 225 | 0.0 | 2.0 | 0.00 | 0.00 | 0.00 | 93 | 1012.2 |
| 20260505080605 | 41 | 225 | 0.0 | 2.0 | 0.00 | 0.00 | 0.00 | 90 | 1012.2 |
| 20260505080505 | 41 | 225 | 0.0 | 2.0 | 0.00 | 0.00 | 0.00 | 91 | 1012.1 |
| 20260505080405 | 41 | 225 | 0.0 | 2.0 | 0.00 | 0.00 | 0.00 | 91 | 1012.3 |
| 20260505080305 | 41 | 225 | 0.0 | 2.0 | 0.00 | 0.00 | 0.00 | 91 | 1012.1 |
| 20260505080204 | 41 | 225 | 0.0 | 2.0 | 0.00 | 0.00 | 0.00 | 91 | 1012.3 |
| 20260505080104 | 42 | 0 | 0.0 | 0.0 | 0.00 | 0.00 | 0.00 | 90 | 1012.2 |
| 20260505080005 | 42 | 0 | 0.0 | 0.0 | 0.00 | 0.00 | 0.00 | 92 | 1012.4 |
| 20260505075705 | 42 | 0 | 0.0 | 0.0 | 0.00 | 0.00 | 0.00 | 91 | 1012.1 |
| 20260505075605 | 42 | 0 | 0.0 | 0.0 | 0.00 | 0.00 | 0.00 | 88 | 1012.1 |
| 20260505075304 | 42 | 302 | 1.0 | 2.0 | 0.00 | 0.00 | 0.00 | 88 | 1012.2 |
| 20260505075205 | 42 | 294 | 1.0 | 2.0 | 0.00 | 0.00 | 0.00 | 88 | 1012.3 |
| 20260505075104 | 42 | 292 | 1.0 | 2.0 | 0.00 | 0.00 | 0.00 | 88 | 1012.2 |
| 20260505075005 | 42 | 289 | 1.0 | 2.0 | 0.00 | 0.00 | 0.00 | 87 | 1012.2 |
| 20260505074904 | 42 | 289 | 1.0 | 2.0 | 0.00 | 0.00 | 0.00 | 87 | 1012.2 |
| 20260505074804 | 42 | 293 | 1.0 | 2.0 | 0.00 | 0.00 | 0.00 | 87 | 1012.2 |
| 20260505074704 | 42 | 296 | 1.0 | 2.0 | 0.00 | 0.00 | 0.00 | 86 | 1012.1 |
| 20260505074505 | 42 | 296 | 2.0 | 2.0 | 0.00 | 0.00 | 0.00 | 83 | 1012.1 |
| 20260505074404 | 43 | 296 | 1.0 | 2.0 | 0.00 | 0.00 | 0.00 | 83 | 1012.0 |
| 20260505074205 | 43 | 296 | 1.0 | 2.0 | 0.00 | 0.00 | 0.00 | 81 | 1012.1 |
| 20260505074105 | 43 | 297 | 1.0 | 2.0 | 0.00 | 0.00 | 0.00 | 82 | 1012.2 |
| 20260505074005 | 43 | 300 | 1.0 | 2.0 | 0.00 | 0.00 | 0.00 | 82 | 1012.3 |
| 20260505073905 | 42 | 301 | 1.0 | 2.0 | 0.00 | 0.00 | 0.00 | 81 | 1012.1 |
| 20260505073804 | 42 | 293 | 1.0 | 2.0 | 0.00 | 0.00 | 0.00 | 81 | 1012.2 |
| 20260505073705 | 42 | 291 | 1.0 | 2.0 | 0.00 | 0.00 | 0.00 | 81 | 1012.1 |
| 20260505073605 | 43 | 291 | 1.0 | 2.0 | 0.00 | 0.00 | 0.00 | 80 | 1012.2 |
| 20260505073404 | 43 | 289 | 1.0 | 2.0 | 0.00 | 0.00 | 0.00 | 82 | 1012.2 |
| 20260505073305 | 43 | 292 | 1.0 | 2.0 | 0.00 | 0.00 | 0.00 | 80 | 1012.1 |
| 20260505073205 | 43 | 292 | 1.0 | 2.0 | 0.00 | 0.00 | 0.00 | 80 | 1012.2 |
| 20260505073104 | 43 | 292 | 1.0 | 2.0 | 0.00 | 0.00 | 0.00 | 80 | 1012.1 |
| 20260505073005 | 43 | 292 | 1.0 | 2.0 | 0.00 | 0.00 | 0.00 | 80 | 1012.2 |
| 20260505072904 | 43 | 294 | 1.0 | 2.0 | 0.00 | 0.00 | 0.00 | 79 | 1012.1 |
| 20260505072804 | 43 | 299 | 1.0 | 2.0 | 0.00 | 0.00 | 0.00 | 79 | 1012.2 |
| 20260505072705 | 43 | 298 | 1.0 | 2.0 | 0.00 | 0.00 | 0.00 | 79 | 1012.3 |
| 20260505072505 | 43 | 292 | 1.0 | 2.0 | 0.00 | 0.00 | 0.00 | 78 | 1012.2 |
| 20260505072405 | 43 | 296 | 1.0 | 2.0 | 0.00 | 0.00 | 0.00 | 79 | 1012.1 |
| 20260505072205 | 44 | 295 | 1.0 | 2.0 | 0.00 | 0.00 | 0.00 | 80 | 1012.2 |
| 20260505072104 | 44 | 296 | 1.0 | 2.0 | 0.00 | 0.00 | 0.00 | 78 | 1012.1 |
| 20260505072005 | 44 | 294 | 1.0 | 2.0 | 0.00 | 0.00 | 0.00 | 77 | 1012.1 |
| 20260505071904 | 44 | 292 | 1.0 | 2.0 | 0.00 | 0.00 | 0.00 | 78 | 1012.3 |
| 20260505071804 | 44 | 292 | 1.0 | 2.0 | 0.00 | 0.00 | 0.00 | 79 | 1012.3 |
| 20260505071704 | 44 | 293 | 1.0 | 2.0 | 0.00 | 0.00 | 0.00 | 78 | 1012.2 |
| 20260505071605 | 44 | 294 | 1.0 | 2.0 | 0.00 | 0.00 | 0.00 | 78 | 1012.2 |
| 20260505071505 | 44 | 294 | 1.0 | 2.0 | 0.00 | 0.00 | 0.00 | 78 | 1012.2 |
| 20260505071305 | 44 | 290 | 1.0 | 2.0 | 0.00 | 0.00 | 0.00 | 77 | 1012.1 |
| 20260505071104 | 44 | 281 | 1.0 | 2.0 | 0.00 | 0.00 | 0.00 | 78 | 1012.3 |
| 20260505070904 | 44 | 279 | 2.0 | 2.0 | 0.00 | 0.00 | 0.00 | 77 | 1012.1 |
| 20260505070804 | 44 | 282 | 1.0 | 2.0 | 0.00 | 0.00 | 0.00 | 77 | 1012.1 |
| 20260505070704 | 44 | 281 | 1.0 | 2.0 | 0.00 | 0.00 | 0.00 | 77 | 1012.1 |
| 20260505070505 | 44 | 275 | 1.0 | 2.0 | 0.00 | 0.00 | 0.00 | 77 | 1012.2 |
| 20260505070404 | 44 | 275 | 1.0 | 2.0 | 0.00 | 0.00 | 0.00 | 77 | 1012.3 |
| 20260505070305 | 44 | 279 | 1.0 | 2.0 | 0.00 | 0.00 | 0.00 | 76 | 1012.2 |
| 20260505070205 | 44 | 289 | 1.0 | 2.0 | 0.00 | 0.00 | 0.00 | 76 | 1012.2 |
| 20260505070104 | 44 | 298 | 1.0 | 2.0 | 0.00 | 0.00 | 0.00 | 77 | 1012.4 |
| 20260505070005 | 44 | 307 | 1.0 | 2.0 | 0.00 | 0.00 | 0.00 | 75 | 1012.3 |
| 20260505065904 | 44 | 310 | 1.0 | 2.0 | 0.00 | 0.00 | 0.00 | 75 | 1012.2 |
| 20260505065805 | 44 | 296 | 1.0 | 4.0 | 0.00 | 0.00 | 0.00 | 76 | 1012.3 |
| 20260505065705 | 44 | 298 | 1.0 | 4.0 | 0.00 | 0.00 | 0.00 | 76 | 1012.3 |
| 20260505065605 | 44 | 302 | 1.0 | 4.0 | 0.00 | 0.00 | 0.00 | 76 | 1012.2 |
| 20260505065505 | 44 | 302 | 1.0 | 4.0 | 0.00 | 0.00 | 0.00 | 76 | 1012.3 |
| 20260505065404 | 44 | 302 | 1.0 | 4.0 | 0.00 | 0.00 | 0.00 | 74 | 1012.1 |
| 20260505065304 | 44 | 300 | 1.0 | 4.0 | 0.00 | 0.00 | 0.00 | 75 | 1012.3 |
| 20260505065104 | 44 | 293 | 1.0 | 4.0 | 0.00 | 0.00 | 0.00 | 74 | 1012.2 |
| 20260505065005 | 44 | 287 | 1.0 | 4.0 | 0.00 | 0.00 | 0.00 | 73 | 1012.3 |
| 20260505064904 | 44 | 287 | 1.0 | 4.0 | 0.00 | 0.00 | 0.00 | 75 | 1012.2 |
| 20260505064805 | 45 | 298 | 1.0 | 4.0 | 0.00 | 0.00 | 0.00 | 74 | 1012.4 |
| 20260505064705 | 45 | 293 | 0.0 | 4.0 | 0.00 | 0.00 | 0.00 | 74 | 1012.2 |
| 20260505064505 | 45 | 181 | 0.0 | 2.0 | 0.00 | 0.00 | 0.00 | 73 | 1012.3 |
| 20260505064404 | 44 | 181 | 0.0 | 2.0 | 0.00 | 0.00 | 0.00 | 72 | 1012.2 |
| 20260505064304 | 44 | 181 | 0.0 | 2.0 | 0.00 | 0.00 | 0.00 | 72 | 1012.2 |
| 20260505064204 | 44 | 181 | 0.0 | 2.0 | 0.00 | 0.00 | 0.00 | 72 | 1012.2 |
| 20260505064104 | 44 | 208 | 0.0 | 2.0 | 0.00 | 0.00 | 0.00 | 72 | 1012.2 |
| 20260505064005 | 45 | 221 | 0.0 | 2.0 | 0.00 | 0.00 | 0.00 | 73 | 1012.3 |
| 20260505063805 | 45 | 221 | 0.0 | 2.0 | 0.00 | 0.00 | 0.00 | 71 | 1012.3 |
| 20260505063605 | 45 | 133 | 1.0 | 4.0 | 0.00 | 0.00 | 0.00 | 72 | 1012.2 |
| 20260505063505 | 44 | 178 | 1.0 | 7.0 | 0.00 | 0.00 | 0.00 | 73 | 1012.4 |
| 20260505063404 | 44 | 183 | 1.0 | 7.0 | 0.00 | 0.00 | 0.00 | 71 | 1012.2 |
| 20260505063304 | 44 | 184 | 2.0 | 7.0 | 0.00 | 0.00 | 0.00 | 70 | 1012.3 |
| 20260505063204 | 45 | 184 | 2.0 | 7.0 | 0.00 | 0.00 | 0.00 | 69 | 1012.2 |
| 20260505063104 | 45 | 182 | 2.0 | 7.0 | 0.00 | 0.00 | 0.00 | 69 | 1012.5 |
| 20260505063005 | 44 | 184 | 2.0 | 7.0 | 0.00 | 0.00 | 0.00 | 72 | 1012.5 |
| 20260505062904 | 44 | 184 | 2.0 | 7.0 | 0.00 | 0.00 | 0.00 | 70 | 1012.2 |
| 20260505062805 | 44 | 182 | 2.0 | 7.0 | 0.00 | 0.00 | 0.00 | 69 | 1012.5 |
| 20260505062705 | 44 | 177 | 2.0 | 7.0 | 0.00 | 0.00 | 0.00 | 70 | 1012.2 |
| 20260505062505 | 44 | 190 | 1.0 | 2.0 | 0.00 | 0.00 | 0.00 | 72 | 1012.3 |
| 20260505062304 | 44 | 175 | 1.0 | 2.0 | 0.00 | 0.00 | 0.00 | 73 | 1012.3 |
| 20260505062204 | 44 | 174 | 1.0 | 2.0 | 0.00 | 0.00 | 0.00 | 73 | 1012.4 |
| 20260505062104 | 44 | 173 | 1.0 | 2.0 | 0.00 | 0.00 | 0.00 | 71 | 1012.3 |
| 20260505062005 | 44 | 160 | 1.0 | 2.0 | 0.00 | 0.00 | 0.00 | 72 | 1012.4 |
| 20260505061905 | 44 | 163 | 1.0 | 2.0 | 0.00 | 0.00 | 0.00 | 73 | 1012.5 |
| 20260505061805 | 44 | 151 | 2.0 | 4.0 | 0.00 | 0.00 | 0.00 | 73 | 1012.3 |
| 20260505061604 | 44 | 147 | 1.0 | 4.0 | 0.00 | 0.00 | 0.00 | 74 | 1012.4 |
| 20260505061505 | 44 | 137 | 1.0 | 7.0 | 0.00 | 0.00 | 0.00 | 72 | 1012.3 |
| 20260505061404 | 44 | 100 | 2.0 | 7.0 | 0.00 | 0.00 | 0.00 | 72 | 1012.3 |
| 20260505061304 | 44 | 44 | 2.0 | 7.0 | 0.00 | 0.00 | 0.00 | 73 | 1012.3 |
| 20260505061204 | 44 | 22 | 3.0 | 7.0 | 0.00 | 0.00 | 0.00 | 72 | 1012.5 |
| 20260505061005 | 44 | 12 | 4.0 | 7.0 | 0.00 | 0.00 | 0.00 | 73 | 1012.5 |
| 20260505060904 | 44 | 8 | 5.0 | 7.0 | 0.00 | 0.00 | 0.00 | 70 | 1012.3 |
| 20260505060805 | 44 | 359 | 4.0 | 7.0 | 0.00 | 0.00 | 0.00 | 71 | 1012.3 |
| 20260505060605 | 44 | 357 | 4.0 | 7.0 | 0.00 | 0.00 | 0.00 | 72 | 1012.6 |
| 20260505060505 | 44 | 356 | 5.0 | 7.0 | 0.00 | 0.00 | 0.00 | 70 | 1012.5 |
| 20260505060404 | 44 | 352 | 4.0 | 7.0 | 0.00 | 0.00 | 0.00 | 70 | 1012.4 |
| 20260505060304 | 44 | 349 | 4.0 | 7.0 | 0.00 | 0.00 | 0.00 | 70 | 1012.4 |
| 20260505060204 | 44 | 342 | 3.0 | 7.0 | 0.00 | 0.00 | 0.00 | 70 | 1012.6 |
| 20260505060105 | 44 | 332 | 3.0 | 7.0 | 0.00 | 0.00 | 0.00 | 70 | 1012.3 |
| 20260505060005 | 44 | 317 | 2.0 | 7.0 | 0.00 | 0.00 | 0.00 | 70 | 1012.2 |
| 20260505055905 | 44 | 308 | 2.0 | 4.0 | 0.00 | 0.00 | 0.00 | 70 | 1012.5 |
| 20260505055704 | 44 | 294 | 2.0 | 6.0 | 0.00 | 0.00 | 0.00 | 69 | 1012.6 |
| 20260505055604 | 44 | 288 | 3.0 | 6.0 | 0.00 | 0.00 | 0.00 | 70 | 1012.4 |
| 20260505055505 | 44 | 285 | 3.0 | 6.0 | 0.00 | 0.00 | 0.00 | 71 | 1012.5 |
| 20260505055404 | 44 | 283 | 3.0 | 6.0 | 0.00 | 0.00 | 0.00 | 73 | 1012.4 |
| 20260505055005 | 44 | 276 | 3.0 | 6.0 | 0.00 | 0.00 | 0.00 | 71 | 1012.6 |
| 20260505054905 | 44 | 274 | 3.0 | 6.0 | 0.00 | 0.00 | 0.00 | 71 | 1012.2 |
| 20260505054804 | 44 | 273 | 3.0 | 6.0 | 0.00 | 0.00 | 0.00 | 72 | 1012.5 |
| 20260505054604 | 44 | 284 | 3.0 | 6.0 | 0.00 | 0.00 | 0.00 | 71 | 1012.5 |
| 20260505054505 | 44 | 282 | 3.0 | 6.0 | 0.00 | 0.00 | 0.00 | 71 | 1012.5 |
| 20260505054404 | 44 | 281 | 2.0 | 6.0 | 0.00 | 0.00 | 0.00 | 72 | 1012.4 |
| 20260505054204 | 44 | 287 | 2.0 | 6.0 | 0.00 | 0.00 | 0.00 | 73 | 1012.5 |
| 20260505054105 | 44 | 304 | 2.0 | 6.0 | 0.00 | 0.00 | 0.00 | 73 | 1012.3 |
| 20260505054005 | 44 | 302 | 2.0 | 6.0 | 0.00 | 0.00 | 0.00 | 73 | 1012.4 |
| 20260505053905 | 44 | 301 | 2.0 | 6.0 | 0.00 | 0.00 | 0.00 | 75 | 1012.5 |
| 20260505053804 | 44 | 308 | 3.0 | 6.0 | 0.00 | 0.00 | 0.00 | 74 | 1012.5 |
| 20260505053704 | 44 | 300 | 3.0 | 6.0 | 0.00 | 0.00 | 0.00 | 72 | 1012.4 |
| 20260505053604 | 44 | 301 | 3.0 | 6.0 | 0.00 | 0.00 | 0.00 | 70 | 1012.4 |
| 20260505053505 | 44 | 298 | 3.0 | 6.0 | 0.00 | 0.00 | 0.00 | 70 | 1012.6 |
| 20260505053305 | 44 | 294 | 3.0 | 6.0 | 0.00 | 0.00 | 0.00 | 70 | 1012.3 |
| 20260505053105 | 44 | 271 | 3.0 | 6.0 | 0.00 | 0.00 | 0.00 | 71 | 1012.4 |
| 20260505053005 | 44 | 249 | 3.0 | 6.0 | 0.00 | 0.00 | 0.00 | 72 | 1012.2 |
| 20260505052905 | 44 | 236 | 3.0 | 6.0 | 0.00 | 0.00 | 0.00 | 72 | 1012.5 |
| 20260505052704 | 44 | 211 | 2.0 | 4.0 | 0.00 | 0.00 | 0.00 | 73 | 1012.3 |
| 20260505052604 | 44 | 205 | 2.0 | 4.0 | 0.00 | 0.00 | 0.00 | 73 | 1012.3 |
| 20260505052505 | 44 | 191 | 2.0 | 4.0 | 0.00 | 0.00 | 0.00 | 73 | 1012.4 |
| 20260505052404 | 44 | 187 | 2.0 | 4.0 | 0.00 | 0.00 | 0.00 | 72 | 1012.1 |
| 20260505052305 | 44 | 209 | 2.0 | 4.0 | 0.00 | 0.00 | 0.00 | 72 | 1012.0 |
| 20260505052204 | 44 | 211 | 2.0 | 4.0 | 0.00 | 0.00 | 0.00 | 70 | 1012.3 |
| 20260505052104 | 44 | 210 | 2.0 | 4.0 | 0.00 | 0.00 | 0.00 | 70 | 1012.3 |
| 20260505052005 | 44 | 221 | 2.0 | 4.0 | 0.00 | 0.00 | 0.00 | 71 | 1012.4 |
| 20260505051904 | 44 | 225 | 2.0 | 4.0 | 0.00 | 0.00 | 0.00 | 72 | 1012.4 |
| 20260505051804 | 44 | 211 | 2.0 | 4.0 | 0.00 | 0.00 | 0.00 | 72 | 1012.3 |
| 20260505051705 | 44 | 203 | 2.0 | 6.0 | 0.00 | 0.00 | 0.00 | 71 | 1012.3 |
| 20260505051605 | 44 | 347 | 2.0 | 6.0 | 0.00 | 0.00 | 0.00 | 71 | 1012.2 |
| 20260505051505 | 44 | 319 | 2.0 | 6.0 | 0.00 | 0.00 | 0.00 | 74 | 1012.4 |
| 20260505051404 | 44 | 307 | 3.0 | 6.0 | 0.00 | 0.00 | 0.00 | 74 | 1012.6 |
| 20260505051204 | 44 | 308 | 3.0 | 6.0 | 0.00 | 0.00 | 0.00 | 72 | 1012.5 |
| 20260505051005 | 44 | 312 | 3.0 | 6.0 | 0.00 | 0.00 | 0.00 | 73 | 1012.5 |
| 20260505050905 | 44 | 312 | 3.0 | 6.0 | 0.00 | 0.00 | 0.00 | 71 | 1012.6 |
| 20260505050604 | 43 | 230 | 3.0 | 8.0 | 0.00 | 0.00 | 0.00 | 71 | 1012.3 |
| 20260505050305 | 43 | 134 | 3.0 | 8.0 | 0.00 | 0.00 | 0.00 | 73 | 1012.3 |
| 20260505050204 | 44 | 138 | 3.0 | 8.0 | 0.00 | 0.00 | 0.00 | 73 | 1012.4 |
| 20260505041704 | 42 | 173 | 3.0 | 4.0 | 0.00 | 0.00 | 0.00 | 78 | 1012.6 |
| 20260505041604 | 42 | 174 | 2.0 | 4.0 | 0.00 | 0.00 | 0.00 | 78 | 1012.5 |
| 20260505041505 | 42 | 177 | 2.0 | 4.0 | 0.00 | 0.00 | 0.00 | 78 | 1012.6 |
| 20260505041404 | 42 | 171 | 2.0 | 4.0 | 0.00 | 0.00 | 0.00 | 78 | 1012.7 |
| 20260505041204 | 41 | 167 | 1.0 | 2.0 | 0.00 | 0.00 | 0.00 | 78 | 1012.7 |
| 20260505041104 | 42 | 164 | 1.0 | 2.0 | 0.00 | 0.00 | 0.00 | 79 | 1012.6 |
| 20260505041005 | 42 | 159 | 1.0 | 2.0 | 0.00 | 0.00 | 0.00 | 79 | 1012.7 |
| 20260505040904 | 42 | 157 | 1.0 | 2.0 | 0.00 | 0.00 | 0.00 | 79 | 1012.7 |
| 20260505040805 | 41 | 157 | 0.0 | 2.0 | 0.00 | 0.00 | 0.00 | 79 | 1012.5 |
| 20260505040704 | 41 | 157 | 0.0 | 2.0 | 0.00 | 0.00 | 0.00 | 79 | 1012.6 |
| 20260505040604 | 41 | 157 | 0.0 | 2.0 | 0.00 | 0.00 | 0.00 | 79 | 1012.6 |
| 20260505040505 | 41 | 157 | 0.0 | 2.0 | 0.00 | 0.00 | 0.00 | 79 | 1012.8 |
| 20260505040404 | 41 | 148 | 0.0 | 2.0 | 0.00 | 0.00 | 0.00 | 79 | 1012.6 |
| 20260505040304 | 41 | 112 | 0.0 | 2.0 | 0.00 | 0.00 | 0.00 | 79 | 1012.9 |
| 20260505040204 | 41 | 0 | 0.0 | 0.0 | 0.00 | 0.00 | 0.00 | 79 | 1012.6 |
| 20260505040105 | 42 | 0 | 0.0 | 0.0 | 0.00 | 0.00 | 0.00 | 79 | 1012.6 |
| 20260505040005 | 41 | 0 | 0.0 | 0.0 | 0.00 | 0.00 | 0.00 | 79 | 1012.7 |
| 20260505035905 | 42 | 139 | 0.0 | 2.0 | 0.00 | 0.00 | 0.00 | 79 | 1012.7 |
| 20260505035804 | 42 | 135 | 0.0 | 2.0 | 0.00 | 0.00 | 0.00 | 79 | 1012.7 |
| 20260505035704 | 41 | 138 | 0.0 | 2.0 | 0.00 | 0.00 | 0.00 | 78 | 1012.6 |
| 20260505035604 | 42 | 146 | 1.0 | 2.0 | 0.00 | 0.00 | 0.00 | 78 | 1012.6 |
| 20260505035505 | 42 | 148 | 1.0 | 2.0 | 0.00 | 0.00 | 0.00 | 78 | 1012.5 |
| 20260505035305 | 42 | 149 | 1.0 | 2.0 | 0.00 | 0.00 | 0.00 | 77 | 1012.8 |
| 20260505035104 | 42 | 159 | 1.0 | 2.0 | 0.00 | 0.00 | 0.00 | 77 | 1012.6 |
| 20260505035005 | 42 | 159 | 1.0 | 2.0 | 0.00 | 0.00 | 0.00 | 77 | 1012.8 |
| 20260505034904 | 42 | 160 | 1.0 | 2.0 | 0.00 | 0.00 | 0.00 | 77 | 1012.7 |
| 20260505034804 | 42 | 153 | 1.0 | 4.0 | 0.00 | 0.00 | 0.00 | 77 | 1012.7 |
| 20260505034704 | 42 | 155 | 2.0 | 6.0 | 0.00 | 0.00 | 0.00 | 78 | 1012.8 |
| 20260505034604 | 42 | 157 | 2.0 | 6.0 | 0.00 | 0.00 | 0.00 | 77 | 1012.6 |
| 20260505034505 | 42 | 158 | 2.0 | 6.0 | 0.00 | 0.00 | 0.00 | 77 | 1012.7 |
| 20260505034205 | 42 | 160 | 2.0 | 6.0 | 0.00 | 0.00 | 0.00 | 77 | 1012.8 |
| 20260505034104 | 42 | 161 | 2.0 | 6.0 | 0.00 | 0.00 | 0.00 | 77 | 1012.8 |
| 20260505034005 | 42 | 163 | 2.0 | 6.0 | 0.00 | 0.00 | 0.00 | 77 | 1012.6 |
| 20260505033904 | 42 | 161 | 2.0 | 6.0 | 0.00 | 0.00 | 0.00 | 77 | 1012.9 |
| 20260505033804 | 42 | 169 | 2.0 | 6.0 | 0.00 | 0.00 | 0.00 | 77 | 1012.7 |
| 20260505033704 | 42 | 169 | 2.0 | 4.0 | 0.00 | 0.00 | 0.00 | 78 | 1012.6 |
| 20260505033605 | 42 | 166 | 2.0 | 4.0 | 0.00 | 0.00 | 0.00 | 78 | 1012.6 |
| 20260505033504 | 41 | 165 | 3.0 | 4.0 | 0.00 | 0.00 | 0.00 | 77 | 1012.5 |
| 20260505033405 | 41 | 162 | 3.0 | 4.0 | 0.00 | 0.00 | 0.00 | 77 | 1012.7 |
| 20260505033305 | 42 | 159 | 3.0 | 4.0 | 0.00 | 0.00 | 0.00 | 77 | 1012.6 |
| 20260505033204 | 42 | 158 | 3.0 | 4.0 | 0.00 | 0.00 | 0.00 | 77 | 1012.7 |
| 20260505033104 | 42 | 161 | 3.0 | 4.0 | 0.00 | 0.00 | 0.00 | 77 | 1012.6 |
| 20260505033005 | 42 | 161 | 4.0 | 4.0 | 0.00 | 0.00 | 0.00 | 77 | 1012.5 |
| 20260505032904 | 42 | 163 | 4.0 | 4.0 | 0.00 | 0.00 | 0.00 | 77 | 1012.8 |
| 20260505032804 | 42 | 160 | 3.0 | 4.0 | 0.00 | 0.00 | 0.00 | 77 | 1012.6 |
| 20260505032705 | 42 | 161 | 3.0 | 4.0 | 0.00 | 0.00 | 0.00 | 77 | 1012.8 |
| 20260505032505 | 42 | 161 | 3.0 | 4.0 | 0.00 | 0.00 | 0.00 | 78 | 1012.9 |
| 20260505032404 | 42 | 164 | 3.0 | 4.0 | 0.00 | 0.00 | 0.00 | 77 | 1012.8 |
| 20260505032305 | 41 | 165 | 3.0 | 4.0 | 0.00 | 0.00 | 0.00 | 77 | 1012.6 |
| 20260505032204 | 41 | 167 | 3.0 | 4.0 | 0.00 | 0.00 | 0.00 | 77 | 1012.9 |
| 20260505032105 | 41 | 164 | 2.0 | 4.0 | 0.00 | 0.00 | 0.00 | 77 | 1012.7 |
| 20260505032005 | 41 | 163 | 2.0 | 4.0 | 0.00 | 0.00 | 0.00 | 77 | 1012.7 |
| 20260505031905 | 41 | 164 | 2.0 | 4.0 | 0.00 | 0.00 | 0.00 | 77 | 1012.7 |
| 20260505031704 | 41 | 167 | 2.0 | 2.0 | 0.00 | 0.00 | 0.00 | 77 | 1013.0 |
| 20260505031604 | 41 | 165 | 2.0 | 2.0 | 0.00 | 0.00 | 0.00 | 77 | 1013.2 |
| 20260505031505 | 41 | 165 | 2.0 | 2.0 | 0.00 | 0.00 | 0.00 | 77 | 1013.0 |
| 20260505031404 | 41 | 164 | 2.0 | 2.0 | 0.00 | 0.00 | 0.00 | 78 | 1013.0 |
| 20260505031204 | 41 | 162 | 2.0 | 2.0 | 0.00 | 0.00 | 0.00 | 78 | 1013.1 |
| 20260505031104 | 41 | 159 | 2.0 | 2.0 | 0.00 | 0.00 | 0.00 | 78 | 1013.3 |
| 20260505031005 | 41 | 156 | 2.0 | 2.0 | 0.00 | 0.00 | 0.00 | 78 | 1013.3 |
| 20260505030904 | 41 | 155 | 2.0 | 2.0 | 0.00 | 0.00 | 0.00 | 78 | 1013.3 |
| 20260505030604 | 40 | 157 | 2.0 | 2.0 | 0.00 | 0.00 | 0.00 | 79 | 1013.3 |
| 20260505030505 | 40 | 156 | 2.0 | 2.0 | 0.00 | 0.00 | 0.00 | 79 | 1013.1 |
| 20260505030404 | 40 | 155 | 2.0 | 2.0 | 0.00 | 0.00 | 0.00 | 79 | 1013.2 |
| 20260505030304 | 40 | 154 | 2.0 | 2.0 | 0.00 | 0.00 | 0.00 | 80 | 1013.3 |
| 20260505030104 | 40 | 158 | 2.0 | 2.0 | 0.00 | 0.00 | 0.00 | 79 | 1013.2 |
| 20260505030005 | 40 | 161 | 2.0 | 2.0 | 0.00 | 0.00 | 0.00 | 80 | 1013.3 |
| 20260505025905 | 40 | 162 | 2.0 | 2.0 | 0.00 | 0.00 | 0.00 | 80 | 1013.1 |
| 20260505025704 | 40 | 160 | 2.0 | 2.0 | 0.00 | 0.00 | 0.00 | 80 | 1013.4 |
| 20260505025604 | 40 | 160 | 2.0 | 2.0 | 0.00 | 0.00 | 0.00 | 79 | 1013.4 |
| 20260505025505 | 40 | 161 | 2.0 | 2.0 | 0.00 | 0.00 | 0.00 | 79 | 1013.3 |
| 20260505025405 | 40 | 161 | 2.0 | 2.0 | 0.00 | 0.00 | 0.00 | 79 | 1013.4 |
| 20260505025305 | 40 | 161 | 2.0 | 2.0 | 0.00 | 0.00 | 0.00 | 79 | 1013.3 |
| 20260505025104 | 40 | 159 | 2.0 | 2.0 | 0.00 | 0.00 | 0.00 | 79 | 1013.4 |
| 20260505025005 | 40 | 157 | 2.0 | 2.0 | 0.00 | 0.00 | 0.00 | 79 | 1013.5 |
| 20260505024904 | 40 | 155 | 2.0 | 2.0 | 0.00 | 0.00 | 0.00 | 79 | 1013.4 |
| 20260505024804 | 40 | 154 | 2.0 | 2.0 | 0.00 | 0.00 | 0.00 | 79 | 1013.3 |
| 20260505024704 | 40 | 155 | 2.0 | 2.0 | 0.00 | 0.00 | 0.00 | 79 | 1013.3 |
| 20260505024605 | 40 | 155 | 2.0 | 2.0 | 0.00 | 0.00 | 0.00 | 79 | 1013.4 |
| 20260505024505 | 40 | 152 | 2.0 | 2.0 | 0.00 | 0.00 | 0.00 | 79 | 1013.6 |
| 20260505024404 | 40 | 150 | 2.0 | 2.0 | 0.00 | 0.00 | 0.00 | 79 | 1013.3 |
| 20260505024305 | 40 | 149 | 2.0 | 2.0 | 0.00 | 0.00 | 0.00 | 78 | 1013.4 |
| 20260505024204 | 40 | 150 | 2.0 | 2.0 | 0.00 | 0.00 | 0.00 | 79 | 1013.6 |
| 20260505024104 | 40 | 151 | 2.0 | 2.0 | 0.00 | 0.00 | 0.00 | 79 | 1013.3 |
| 20260505024005 | 40 | 151 | 2.0 | 2.0 | 0.00 | 0.00 | 0.00 | 78 | 1013.4 |
| 20260505023904 | 40 | 152 | 2.0 | 2.0 | 0.00 | 0.00 | 0.00 | 78 | 1013.4 |
| 20260505023805 | 40 | 154 | 2.0 | 2.0 | 0.00 | 0.00 | 0.00 | 79 | 1013.4 |
| 20260505023705 | 40 | 153 | 2.0 | 2.0 | 0.00 | 0.00 | 0.00 | 79 | 1013.3 |
| 20260505023604 | 40 | 153 | 2.0 | 2.0 | 0.00 | 0.00 | 0.00 | 79 | 1013.3 |
| 20260505023404 | 40 | 159 | 2.0 | 2.0 | 0.00 | 0.00 | 0.00 | 80 | 1013.3 |
| 20260505023304 | 40 | 159 | 2.0 | 2.0 | 0.00 | 0.00 | 0.00 | 80 | 1013.4 |
| 20260505023204 | 40 | 161 | 2.0 | 2.0 | 0.00 | 0.00 | 0.00 | 79 | 1013.6 |
| 20260505023005 | 40 | 162 | 2.0 | 2.0 | 0.00 | 0.00 | 0.00 | 80 | 1013.4 |
| 20260505022904 | 40 | 162 | 2.0 | 2.0 | 0.00 | 0.00 | 0.00 | 79 | 1013.3 |
| 20260505022804 | 40 | 162 | 2.0 | 2.0 | 0.00 | 0.00 | 0.00 | 80 | 1013.7 |
| 20260505022704 | 40 | 162 | 2.0 | 2.0 | 0.00 | 0.00 | 0.00 | 80 | 1013.6 |
| 20260505022605 | 40 | 162 | 2.0 | 2.0 | 0.00 | 0.00 | 0.00 | 80 | 1013.5 |
| 20260505022505 | 40 | 163 | 2.0 | 2.0 | 0.00 | 0.00 | 0.00 | 80 | 1013.5 |
| 20260505022404 | 40 | 164 | 2.0 | 2.0 | 0.00 | 0.00 | 0.00 | 80 | 1013.5 |
| 20260505022305 | 40 | 164 | 2.0 | 2.0 | 0.00 | 0.00 | 0.00 | 79 | 1013.5 |
| 20260505022204 | 40 | 162 | 2.0 | 2.0 | 0.00 | 0.00 | 0.00 | 80 | 1013.4 |
| 20260505022104 | 40 | 159 | 2.0 | 2.0 | 0.00 | 0.00 | 0.00 | 80 | 1013.6 |
| 20260505022005 | 40 | 159 | 1.0 | 2.0 | 0.00 | 0.00 | 0.00 | 80 | 1013.6 |
| 20260505021904 | 39 | 157 | 1.0 | 2.0 | 0.00 | 0.00 | 0.00 | 80 | 1013.5 |
| 20260505021804 | 39 | 157 | 1.0 | 2.0 | 0.00 | 0.00 | 0.00 | 82 | 1013.5 |
| 20260505021704 | 39 | 157 | 1.0 | 2.0 | 0.00 | 0.00 | 0.00 | 81 | 1013.6 |
| 20260505021605 | 39 | 157 | 1.0 | 2.0 | 0.00 | 0.00 | 0.00 | 81 | 1013.6 |
| 20260505021504 | 39 | 156 | 1.0 | 2.0 | 0.00 | 0.00 | 0.00 | 82 | 1013.6 |
| 20260505021405 | 39 | 156 | 1.0 | 2.0 | 0.00 | 0.00 | 0.00 | 82 | 1013.8 |
| 20260505021304 | 39 | 157 | 1.0 | 2.0 | 0.00 | 0.00 | 0.00 | 82 | 1013.6 |
| 20260505021204 | 39 | 157 | 1.0 | 2.0 | 0.00 | 0.00 | 0.00 | 83 | 1013.6 |
| 20260505020904 | 39 | 157 | 2.0 | 2.0 | 0.00 | 0.00 | 0.00 | 84 | 1013.8 |
| 20260505020804 | 39 | 157 | 2.0 | 2.0 | 0.00 | 0.00 | 0.00 | 84 | 1013.5 |
| 20260505020704 | 39 | 156 | 2.0 | 2.0 | 0.00 | 0.00 | 0.00 | 84 | 1013.7 |
| 20260505020604 | 39 | 153 | 2.0 | 2.0 | 0.00 | 0.00 | 0.00 | 83 | 1013.7 |
| 20260505020404 | 39 | 149 | 2.0 | 2.0 | 0.00 | 0.00 | 0.00 | 84 | 1013.8 |
| 20260505020304 | 39 | 148 | 2.0 | 2.0 | 0.00 | 0.00 | 0.00 | 84 | 1013.9 |
| 20260505020204 | 39 | 148 | 2.0 | 2.0 | 0.00 | 0.00 | 0.00 | 84 | 1013.9 |
| 20260505020105 | 39 | 148 | 2.0 | 2.0 | 0.00 | 0.00 | 0.00 | 84 | 1013.9 |
| 20260505020005 | 39 | 149 | 2.0 | 2.0 | 0.00 | 0.00 | 0.00 | 84 | 1013.8 |
| 20260505015804 | 40 | 150 | 2.0 | 2.0 | 0.00 | 0.00 | 0.00 | 84 | 1013.8 |
| 20260505015704 | 40 | 151 | 2.0 | 2.0 | 0.00 | 0.00 | 0.00 | 84 | 1013.9 |
| 20260505015604 | 40 | 154 | 2.0 | 2.0 | 0.00 | 0.00 | 0.00 | 83 | 1013.8 |
| 20260505015505 | 40 | 155 | 2.0 | 2.0 | 0.00 | 0.00 | 0.00 | 84 | 1013.8 |
| 20260505015404 | 40 | 155 | 2.0 | 2.0 | 0.00 | 0.00 | 0.00 | 84 | 1013.7 |
| 20260505015304 | 39 | 156 | 2.0 | 2.0 | 0.00 | 0.00 | 0.00 | 85 | 1013.9 |
| 20260505015005 | 39 | 155 | 1.0 | 2.0 | 0.00 | 0.00 | 0.00 | 85 | 1014.1 |
| 20260505014904 | 38 | 155 | 1.0 | 2.0 | 0.00 | 0.00 | 0.00 | 87 | 1013.9 |
| 20260505014805 | 38 | 155 | 1.0 | 2.0 | 0.00 | 0.00 | 0.00 | 87 | 1013.8 |
| 20260505014704 | 38 | 155 | 1.0 | 2.0 | 0.00 | 0.00 | 0.00 | 88 | 1013.9 |
| 20260505014604 | 38 | 155 | 1.0 | 2.0 | 0.00 | 0.00 | 0.00 | 88 | 1014.1 |
| 20260505014505 | 38 | 155 | 1.0 | 2.0 | 0.00 | 0.00 | 0.00 | 88 | 1014.0 |